GEFSNE_prec_meanprecacc_012.txt.gz
Total_Precipitation_Accumulation
0.00 0.00 0.00 0.00 0.00 0.01 0.01 0.01 0.02 0.02 0.01 0.00 0.00 0.00 0.00 0.00 0.00 0.00 0.00 0.00 0.01 0.01 0.01 0.01 0.01 0.01 0.01 0.01 0.01 0.01 0.01 0.01 0.01 0.01 0.04 0.10 0.15 0.18
0.00 0.01 0.02 0.01 0.02 0.02 0.02 0.03 0.03 0.03 0.03 0.01 0.00 0.00 0.00 0.00 0.00 0.00 0.00 0.01 0.02 0.02 0.02 0.03 0.02 0.02 0.01 0.01 0.01 0.01 0.01 0.01 0.00 0.00 0.01 0.02 0.06 0.12
0.02 0.03 0.03 0.04 0.04 0.04 0.04 0.03 0.02 0.03 0.03 0.01 0.00 0.00 0.01 0.01 0.01 0.02 0.03 0.04 0.05 0.06 0.07 0.07 0.05 0.04 0.03 0.03 0.03 0.03 0.03 0.02 0.01 0.01 0.00 0.01 0.01 0.03
0.03 0.04 0.04 0.04 0.05 0.04 0.04 0.03 0.03 0.04 0.04 0.03 0.01 0.01 0.01 0.01 0.03 0.04 0.03 0.03 0.05 0.06 0.07 0.06 0.05 0.04 0.03 0.02 0.02 0.02 0.02 0.01 0.01 0.01 0.01 0.01 0.01 0.01
0.02 0.02 0.02 0.02 0.03 0.03 0.03 0.03 0.03 0.02 0.03 0.04 0.03 0.02 0.02 0.03 0.05 0.06 0.06 0.08 0.07 0.09 0.08 0.06 0.04 0.02 0.02 0.01 0.01 0.01 0.01 0.01 0.00 0.00 0.00 0.01 0.01 0.01
0.01 0.01 0.01 0.02 0.03 0.03 0.03 0.03 0.03 0.03 0.04 0.05 0.06 0.05 0.04 0.04 0.07 0.08 0.07 0.08 0.09 0.07 0.07 0.06 0.04 0.02 0.01 0.00 0.00 0.00 0.00 0.00 0.01 0.01 0.01 0.00 0.00 0.00
0.00 0.01 0.01 0.02 0.03 0.04 0.03 0.03 0.04 0.06 0.07 0.08 0.07 0.06 0.04 0.05 0.05 0.06 0.05 0.04 0.03 0.04 0.05 0.05 0.05 0.03 0.02 0.02 0.02 0.01 0.01 0.00 0.00 0.00 0.00 0.01 0.01 0.00
0.01 0.01 0.01 0.01 0.02 0.02 0.03 0.06 0.08 0.09 0.09 0.09 0.07 0.05 0.03 0.03 0.04 0.05 0.05 0.06 0.06 0.05 0.06 0.06 0.07 0.06 0.04 0.05 0.07 0.05 0.04 0.03 0.01 0.01 0.00 0.00 0.00 0.00
0.01 0.02 0.01 0.01 0.01 0.02 0.03 0.04 0.04 0.05 0.06 0.08 0.07 0.04 0.03 0.04 0.06 0.07 0.08 0.10 0.09 0.07 0.08 0.06 0.05 0.05 0.05 0.08 0.10 0.08 0.07 0.05 0.04 0.02 0.01 0.00 0.00 0.00
0.01 0.02 0.01 0.01 0.02 0.03 0.02 0.01 0.01 0.01 0.02 0.03 0.04 0.04 0.06 0.07 0.09 0.10 0.11 0.12 0.10 0.08 0.10 0.09 0.04 0.04 0.05 0.07 0.11 0.10 0.08 0.07 0.05 0.03 0.01 0.01 0.00 0.00
0.01 0.01 0.01 0.02 0.05 0.05 0.03 0.02 0.02 0.01 0.01 0.03 0.06 0.09 0.11 0.13 0.14 0.14 0.16 0.19 0.14 0.08 0.11 0.13 0.09 0.07 0.07 0.07 0.08 0.09 0.07 0.06 0.03 0.02 0.01 0.01 0.01 0.01
0.00 0.00 0.02 0.05 0.05 0.03 0.02 0.02 0.04 0.03 0.04 0.06 0.11 0.15 0.17 0.23 0.24 0.20 0.20 0.19 0.17 0.16 0.14 0.17 0.14 0.11 0.09 0.08 0.08 0.07 0.05 0.05 0.04 0.03 0.02 0.02 0.02 0.02
0.00 0.01 0.04 0.07 0.04 0.03 0.04 0.04 0.06 0.07 0.10 0.12 0.13 0.14 0.17 0.19 0.18 0.15 0.15 0.16 0.19 0.22 0.20 0.17 0.15 0.14 0.14 0.10 0.07 0.06 0.06 0.08 0.11 0.12 0.10 0.07 0.05 0.03
0.01 0.03 0.06 0.08 0.05 0.07 0.07 0.09 0.11 0.14 0.14 0.14 0.13 0.14 0.14 0.14 0.14 0.13 0.12 0.13 0.16 0.20 0.19 0.17 0.15 0.13 0.11 0.06 0.06 0.08 0.11 0.17 0.23 0.27 0.22 0.17 0.09 0.06
0.03 0.06 0.10 0.11 0.11 0.12 0.14 0.15 0.16 0.15 0.13 0.11 0.11 0.12 0.11 0.10 0.09 0.09 0.10 0.14 0.17 0.17 0.16 0.12 0.11 0.09 0.08 0.07 0.08 0.11 0.13 0.16 0.22 0.29 0.29 0.22 0.14 0.07
0.02 0.06 0.14 0.19 0.21 0.21 0.19 0.17 0.13 0.12 0.11 0.10 0.09 0.08 0.06 0.06 0.06 0.08 0.12 0.15 0.17 0.16 0.12 0.09 0.08 0.08 0.11 0.12 0.12 0.12 0.10 0.14 0.21 0.24 0.26 0.25 0.18 0.08
0.02 0.03 0.07 0.13 0.16 0.15 0.14 0.11 0.10 0.08 0.07 0.06 0.07 0.07 0.06 0.06 0.06 0.08 0.10 0.11 0.13 0.14 0.12 0.09 0.08 0.08 0.09 0.11 0.13 0.12 0.09 0.12 0.19 0.21 0.21 0.26 0.27 0.17
0.02 0.03 0.07 0.11 0.15 0.13 0.11 0.10 0.09 0.08 0.06 0.06 0.07 0.08 0.07 0.08 0.10 0.09 0.09 0.10 0.12 0.12 0.10 0.08 0.06 0.04 0.04 0.07 0.11 0.10 0.11 0.16 0.19 0.17 0.15 0.21 0.29 0.24
0.01 0.03 0.07 0.11 0.13 0.11 0.09 0.09 0.10 0.10 0.08 0.06 0.06 0.08 0.09 0.09 0.08 0.08 0.08 0.07 0.06 0.05 0.05 0.05 0.06 0.06 0.05 0.07 0.14 0.19 0.18 0.19 0.18 0.17 0.17 0.18 0.26 0.27
0.03 0.05 0.07 0.09 0.12 0.12 0.09 0.08 0.08 0.09 0.08 0.09 0.08 0.07 0.07 0.07 0.07 0.07 0.07 0.05 0.04 0.04 0.04 0.05 0.06 0.05 0.04 0.07 0.17 0.26 0.26 0.18 0.16 0.20 0.21 0.17 0.21 0.24
0.05 0.07 0.08 0.08 0.09 0.10 0.09 0.08 0.08 0.08 0.09 0.09 0.09 0.09 0.09 0.08 0.06 0.05 0.05 0.05 0.05 0.04 0.03 0.04 0.06 0.06 0.04 0.03 0.08 0.15 0.19 0.21 0.20 0.21 0.21 0.16 0.11 0.08
0.07 0.09 0.09 0.07 0.06 0.06 0.07 0.08 0.09 0.08 0.08 0.09 0.10 0.09 0.09 0.08 0.06 0.05 0.04 0.04 0.03 0.02 0.02 0.02 0.03 0.04 0.05 0.04 0.04 0.07 0.08 0.10 0.11 0.13 0.14 0.10 0.05 0.04
0.09 0.10 0.09 0.07 0.06 0.06 0.07 0.06 0.06 0.07 0.07 0.09 0.09 0.07 0.06 0.05 0.04 0.02 0.01 0.01 0.01 0.01 0.00 0.00 0.01 0.01 0.01 0.01 0.01 0.02 0.03 0.03 0.02 0.02 0.05 0.07 0.05 0.04

GEFSNE_prec_meanprecacc_018.txt.gz
Total_Precipitation_Accumulation
0.00 0.00 0.00 0.00 0.00 0.01 0.01 0.01 0.02 0.02 0.01 0.00 0.00 0.00 0.00 0.00 0.00 0.00 0.00 0.00 0.01 0.01 0.01 0.01 0.01 0.01 0.01 0.01 0.02 0.02 0.02 0.03 0.03 0.03 0.05 0.11 0.16 0.19
0.00 0.01 0.02 0.01 0.02 0.02 0.02 0.03 0.03 0.04 0.03 0.01 0.00 0.00 0.00 0.00 0.00 0.00 0.00 0.01 0.02 0.02 0.02 0.03 0.02 0.02 0.01 0.01 0.02 0.02 0.02 0.03 0.03 0.02 0.02 0.03 0.07 0.13
0.02 0.03 0.03 0.04 0.04 0.04 0.04 0.03 0.02 0.03 0.03 0.01 0.00 0.00 0.01 0.01 0.01 0.02 0.03 0.04 0.05 0.06 0.07 0.07 0.06 0.05 0.05 0.05 0.05 0.06 0.06 0.06 0.06 0.05 0.04 0.03 0.03 0.04
0.03 0.04 0.04 0.04 0.05 0.04 0.04 0.03 0.03 0.04 0.04 0.03 0.02 0.01 0.01 0.01 0.03 0.04 0.03 0.03 0.05 0.06 0.09 0.10 0.10 0.09 0.08 0.07 0.06 0.06 0.06 0.06 0.07 0.07 0.07 0.07 0.05 0.03
0.02 0.02 0.02 0.02 0.03 0.03 0.03 0.03 0.03 0.02 0.03 0.05 0.04 0.03 0.02 0.03 0.06 0.06 0.06 0.08 0.07 0.10 0.10 0.09 0.08 0.07 0.06 0.05 0.04 0.04 0.04 0.04 0.03 0.04 0.05 0.05 0.05 0.03
0.01 0.01 0.01 0.02 0.03 0.03 0.03 0.03 0.03 0.04 0.05 0.07 0.07 0.06 0.05 0.05 0.08 0.08 0.07 0.08 0.09 0.07 0.08 0.07 0.05 0.03 0.03 0.03 0.03 0.03 0.02 0.02 0.02 0.02 0.02 0.02 0.01 0.01
0.00 0.01 0.01 0.02 0.03 0.04 0.04 0.05 0.06 0.08 0.09 0.10 0.09 0.07 0.05 0.06 0.07 0.07 0.06 0.04 0.03 0.04 0.05 0.05 0.05 0.03 0.03 0.03 0.03 0.02 0.02 0.01 0.01 0.01 0.01 0.01 0.01 0.00
0.01 0.01 0.01 0.01 0.02 0.02 0.04 0.08 0.12 0.12 0.11 0.11 0.09 0.08 0.05 0.04 0.05 0.06 0.06 0.07 0.07 0.05 0.06 0.06 0.07 0.06 0.05 0.05 0.07 0.05 0.04 0.03 0.01 0.01 0.00 0.00 0.00 0.00
0.01 0.02 0.01 0.01 0.01 0.02 0.03 0.06 0.05 0.06 0.08 0.11 0.10 0.07 0.06 0.06 0.09 0.10 0.12 0.13 0.11 0.08 0.10 0.09 0.05 0.05 0.05 0.08 0.11 0.08 0.07 0.05 0.04 0.02 0.01 0.00 0.00 0.00
0.01 0.02 0.01 0.01 0.02 0.04 0.03 0.02 0.01 0.01 0.02 0.05 0.08 0.08 0.09 0.10 0.13 0.16 0.17 0.17 0.12 0.09 0.14 0.15 0.06 0.05 0.06 0.09 0.13 0.11 0.09 0.08 0.07 0.05 0.03 0.02 0.01 0.01
0.01 0.01 0.01 0.02 0.05 0.07 0.04 0.03 0.02 0.01 0.02 0.06 0.11 0.15 0.18 0.20 0.21 0.21 0.24 0.26 0.19 0.10 0.14 0.20 0.13 0.10 0.09 0.09 0.11 0.12 0.10 0.09 0.07 0.04 0.04 0.04 0.04 0.03
0.00 0.00 0.02 0.05 0.05 0.05 0.03 0.05 0.07 0.05 0.06 0.10 0.15 0.20 0.22 0.29 0.32 0.27 0.27 0.26 0.22 0.20 0.19 0.23 0.20 0.16 0.14 0.10 0.09 0.09 0.08 0.08 0.08 0.06 0.05 0.04 0.06 0.04
0.01 0.01 0.04 0.07 0.05 0.04 0.06 0.06 0.10 0.12 0.14 0.16 0.16 0.18 0.20 0.23 0.23 0.20 0.20 0.21 0.24 0.28 0.25 0.24 0.21 0.19 0.18 0.12 0.08 0.07 0.07 0.11 0.13 0.14 0.12 0.09 0.06 0.04
0.01 0.03 0.06 0.08 0.06 0.08 0.09 0.11 0.14 0.17 0.18 0.18 0.18 0.19 0.18 0.18 0.18 0.16 0.16 0.18 0.22 0.26 0.25 0.22 0.20 0.17 0.14 0.09 0.09 0.11 0.14 0.20 0.27 0.31 0.26 0.20 0.12 0.08
0.03 0.06 0.10 0.11 0.12 0.13 0.16 0.18 0.19 0.18 0.18 0.17 0.18 0.19 0.16 0.13 0.12 0.11 0.14 0.19 0.23 0.23 0.21 0.16 0.15 0.13 0.12 0.11 0.13 0.15 0.16 0.21 0.28 0.35 0.35 0.28 0.18 0.10
0.02 0.06 0.14 0.19 0.22 0.23 0.23 0.21 0.17 0.16 0.16 0.16 0.15 0.13 0.10 0.08 0.08 0.10 0.14 0.18 0.21 0.21 0.17 0.13 0.12 0.13 0.16 0.17 0.16 0.17 0.14 0.19 0.26 0.33 0.36 0.35 0.26 0.13
0.02 0.03 0.07 0.13 0.17 0.17 0.17 0.16 0.14 0.11 0.10 0.09 0.10 0.09 0.08 0.08 0.07 0.08 0.11 0.12 0.15 0.18 0.17 0.14 0.12 0.11 0.12 0.14 0.17 0.17 0.14 0.18 0.27 0.32 0.33 0.38 0.38 0.24
0.02 0.04 0.08 0.12 0.17 0.16 0.16 0.17 0.14 0.11 0.09 0.09 0.09 0.09 0.09 0.10 0.11 0.11 0.10 0.12 0.15 0.16 0.15 0.13 0.11 0.07 0.05 0.09 0.16 0.17 0.18 0.26 0.32 0.30 0.24 0.31 0.42 0.36
0.02 0.04 0.09 0.13 0.16 0.15 0.14 0.16 0.17 0.14 0.12 0.11 0.10 0.09 0.10 0.10 0.09 0.10 0.11 0.10 0.10 0.09 0.09 0.09 0.09 0.08 0.06 0.10 0.20 0.31 0.31 0.31 0.31 0.28 0.25 0.28 0.41 0.43
0.04 0.07 0.10 0.12 0.16 0.17 0.14 0.13 0.13 0.12 0.12 0.13 0.13 0.10 0.08 0.08 0.08 0.08 0.08 0.07 0.07 0.07 0.07 0.08 0.09 0.08 0.06 0.10 0.27 0.41 0.42 0.30 0.25 0.29 0.32 0.32 0.40 0.40
0.08 0.10 0.11 0.12 0.13 0.15 0.14 0.12 0.11 0.10 0.10 0.11 0.12 0.12 0.11 0.09 0.06 0.06 0.05 0.06 0.06 0.06 0.06 0.08 0.10 0.10 0.05 0.04 0.14 0.27 0.35 0.39 0.35 0.36 0.39 0.32 0.22 0.14
0.11 0.13 0.12 0.10 0.10 0.10 0.10 0.10 0.10 0.09 0.09 0.10 0.10 0.10 0.09 0.08 0.06 0.05 0.05 0.04 0.03 0.03 0.03 0.05 0.06 0.07 0.06 0.05 0.10 0.18 0.21 0.22 0.26 0.31 0.31 0.19 0.08 0.07
0.14 0.15 0.12 0.09 0.08 0.09 0.09 0.07 0.07 0.07 0.07 0.09 0.09 0.07 0.06 0.05 0.04 0.03 0.01 0.01 0.01 0.01 0.01 0.01 0.02 0.02 0.02 0.02 0.04 0.07 0.08 0.06 0.05 0.06 0.12 0.14 0.10 0.10

GEFSNE_prec_meanprecacc_024.txt.gz
Total_Precipitation_Accumulation
0.00 0.00 0.00 0.00 0.00 0.01 0.01 0.01 0.02 0.02 0.01 0.00 0.00 0.00 0.00 0.00 0.00 0.00 0.00 0.01 0.01 0.02 0.01 0.01 0.01 0.01 0.01 0.01 0.02 0.02 0.03 0.03 0.03 0.04 0.07 0.14 0.20 0.24
0.00 0.01 0.02 0.01 0.02 0.02 0.02 0.03 0.03 0.04 0.03 0.01 0.00 0.00 0.00 0.00 0.00 0.00 0.01 0.01 0.02 0.02 0.03 0.03 0.03 0.02 0.02 0.02 0.02 0.03 0.03 0.03 0.03 0.03 0.04 0.05 0.10 0.17
0.02 0.03 0.03 0.04 0.04 0.04 0.04 0.04 0.03 0.03 0.04 0.02 0.01 0.01 0.02 0.02 0.02 0.03 0.03 0.05 0.05 0.06 0.07 0.07 0.06 0.06 0.06 0.06 0.07 0.07 0.08 0.07 0.07 0.06 0.06 0.06 0.06 0.08
0.03 0.04 0.04 0.04 0.05 0.04 0.04 0.03 0.03 0.05 0.06 0.05 0.03 0.02 0.03 0.03 0.05 0.07 0.05 0.04 0.06 0.07 0.09 0.10 0.10 0.10 0.09 0.08 0.08 0.08 0.07 0.07 0.08 0.08 0.09 0.10 0.09 0.09
0.02 0.02 0.02 0.02 0.03 0.03 0.04 0.03 0.03 0.04 0.06 0.08 0.06 0.05 0.04 0.05 0.09 0.09 0.08 0.10 0.09 0.10 0.10 0.09 0.08 0.07 0.06 0.06 0.06 0.05 0.05 0.04 0.04 0.05 0.06 0.08 0.09 0.09
0.01 0.01 0.01 0.02 0.03 0.04 0.04 0.04 0.06 0.07 0.09 0.12 0.11 0.09 0.07 0.06 0.11 0.11 0.10 0.10 0.10 0.08 0.09 0.07 0.06 0.04 0.03 0.03 0.04 0.04 0.03 0.03 0.03 0.04 0.04 0.04 0.04 0.04
0.00 0.01 0.01 0.02 0.04 0.05 0.05 0.07 0.10 0.13 0.14 0.16 0.14 0.10 0.07 0.08 0.10 0.11 0.10 0.07 0.05 0.05 0.07 0.08 0.08 0.06 0.05 0.05 0.04 0.03 0.03 0.02 0.02 0.02 0.02 0.03 0.03 0.03
0.01 0.01 0.01 0.02 0.02 0.02 0.04 0.09 0.15 0.17 0.16 0.16 0.14 0.12 0.08 0.08 0.09 0.10 0.10 0.11 0.10 0.07 0.10 0.09 0.09 0.09 0.08 0.10 0.10 0.06 0.04 0.03 0.02 0.01 0.01 0.01 0.01 0.02
0.02 0.02 0.02 0.01 0.02 0.03 0.04 0.06 0.06 0.07 0.11 0.15 0.16 0.13 0.11 0.11 0.14 0.16 0.17 0.18 0.15 0.11 0.15 0.13 0.08 0.08 0.09 0.11 0.12 0.09 0.07 0.06 0.04 0.02 0.01 0.01 0.01 0.01
0.02 0.02 0.02 0.02 0.03 0.05 0.04 0.03 0.03 0.03 0.04 0.07 0.12 0.13 0.13 0.15 0.18 0.21 0.22 0.22 0.16 0.13 0.20 0.22 0.10 0.09 0.10 0.12 0.15 0.12 0.10 0.09 0.07 0.05 0.03 0.02 0.02 0.01
0.01 0.01 0.02 0.03 0.06 0.07 0.05 0.04 0.04 0.03 0.03 0.06 0.13 0.18 0.20 0.23 0.24 0.25 0.30 0.31 0.22 0.13 0.20 0.28 0.19 0.14 0.12 0.13 0.15 0.14 0.12 0.10 0.08 0.06 0.05 0.05 0.05 0.04
0.00 0.01 0.03 0.05 0.05 0.05 0.04 0.06 0.09 0.07 0.08 0.12 0.18 0.23 0.25 0.33 0.35 0.31 0.32 0.31 0.26 0.24 0.24 0.28 0.25 0.21 0.18 0.14 0.13 0.12 0.11 0.11 0.10 0.09 0.07 0.06 0.08 0.06
0.01 0.02 0.04 0.07 0.05 0.04 0.06 0.08 0.12 0.13 0.17 0.21 0.21 0.22 0.24 0.27 0.28 0.24 0.24 0.26 0.31 0.35 0.31 0.28 0.25 0.23 0.22 0.16 0.11 0.10 0.11 0.14 0.16 0.17 0.15 0.12 0.09 0.07
0.02 0.04 0.07 0.08 0.06 0.09 0.10 0.12 0.15 0.19 0.23 0.23 0.22 0.22 0.21 0.22 0.22 0.20 0.19 0.22 0.27 0.32 0.29 0.26 0.25 0.22 0.17 0.12 0.12 0.13 0.17 0.23 0.30 0.34 0.29 0.23 0.14 0.10
0.04 0.07 0.10 0.11 0.13 0.15 0.17 0.19 0.21 0.22 0.22 0.22 0.22 0.23 0.20 0.17 0.15 0.14 0.17 0.22 0.27 0.27 0.24 0.20 0.20 0.17 0.15 0.15 0.16 0.18 0.18 0.23 0.31 0.38 0.38 0.32 0.21 0.12
0.03 0.07 0.14 0.20 0.23 0.24 0.24 0.24 0.22 0.21 0.21 0.20 0.20 0.17 0.13 0.11 0.10 0.12 0.17 0.21 0.24 0.24 0.20 0.16 0.16 0.16 0.19 0.20 0.19 0.20 0.17 0.22 0.30 0.37 0.41 0.41 0.32 0.18
0.02 0.05 0.09 0.14 0.18 0.18 0.19 0.19 0.20 0.17 0.16 0.14 0.14 0.13 0.11 0.11 0.11 0.11 0.14 0.15 0.18 0.22 0.20 0.18 0.16 0.15 0.14 0.16 0.20 0.20 0.17 0.22 0.33 0.39 0.40 0.47 0.47 0.31
0.03 0.05 0.09 0.14 0.18 0.17 0.18 0.19 0.19 0.17 0.15 0.14 0.14 0.13 0.12 0.13 0.15 0.14 0.14 0.15 0.19 0.20 0.18 0.16 0.13 0.10 0.08 0.11 0.21 0.23 0.22 0.32 0.40 0.38 0.31 0.39 0.53 0.47
0.03 0.05 0.10 0.15 0.18 0.16 0.16 0.18 0.20 0.18 0.16 0.15 0.14 0.14 0.14 0.14 0.13 0.13 0.14 0.13 0.13 0.12 0.11 0.11 0.10 0.09 0.08 0.13 0.26 0.42 0.41 0.39 0.38 0.34 0.31 0.35 0.52 0.54
0.05 0.08 0.11 0.14 0.18 0.18 0.15 0.14 0.15 0.15 0.15 0.15 0.15 0.13 0.12 0.12 0.11 0.11 0.10 0.09 0.09 0.08 0.08 0.09 0.10 0.09 0.08 0.13 0.36 0.54 0.55 0.38 0.29 0.35 0.41 0.42 0.51 0.52
0.09 0.11 0.13 0.14 0.15 0.16 0.15 0.13 0.12 0.12 0.12 0.12 0.13 0.13 0.13 0.11 0.09 0.07 0.06 0.06 0.07 0.06 0.07 0.10 0.13 0.12 0.07 0.05 0.20 0.40 0.50 0.56 0.48 0.47 0.51 0.44 0.33 0.24
0.12 0.14 0.13 0.12 0.12 0.12 0.11 0.11 0.11 0.10 0.09 0.10 0.10 0.10 0.10 0.09 0.08 0.06 0.05 0.04 0.04 0.04 0.05 0.07 0.08 0.08 0.06 0.06 0.16 0.30 0.35 0.36 0.39 0.45 0.46 0.31 0.17 0.16
0.15 0.15 0.13 0.11 0.10 0.10 0.09 0.08 0.07 0.07 0.08 0.09 0.09 0.07 0.06 0.05 0.04 0.03 0.02 0.01 0.01 0.01 0.01 0.02 0.02 0.02 0.02 0.03 0.06 0.11 0.12 0.10 0.07 0.10 0.22 0.26 0.20 0.21

GEFSNE_prec_meanprecacc_030.txt.gz
Total_Precipitation_Accumulation
0.00 0.00 0.00 0.00 0.00 0.01 0.01 0.01 0.02 0.02 0.01 0.00 0.00 0.00 0.00 0.00 0.00 0.00 0.00 0.01 0.02 0.02 0.02 0.02 0.02 0.02 0.02 0.03 0.03 0.03 0.04 0.04 0.04 0.05 0.08 0.15 0.21 0.25
0.01 0.01 0.02 0.01 0.02 0.02 0.02 0.03 0.03 0.04 0.03 0.01 0.00 0.00 0.00 0.00 0.00 0.01 0.01 0.02 0.02 0.03 0.03 0.04 0.04 0.03 0.03 0.03 0.04 0.04 0.04 0.04 0.04 0.04 0.05 0.06 0.11 0.18
0.02 0.03 0.03 0.04 0.04 0.04 0.04 0.04 0.03 0.03 0.04 0.02 0.01 0.01 0.02 0.03 0.03 0.04 0.04 0.06 0.06 0.07 0.08 0.08 0.07 0.06 0.06 0.07 0.08 0.08 0.09 0.09 0.08 0.08 0.08 0.08 0.07 0.09
0.03 0.04 0.04 0.04 0.05 0.05 0.04 0.04 0.04 0.05 0.06 0.05 0.03 0.02 0.03 0.04 0.06 0.08 0.06 0.05 0.07 0.07 0.10 0.10 0.10 0.10 0.09 0.09 0.08 0.08 0.08 0.08 0.09 0.10 0.11 0.12 0.12 0.11
0.02 0.02 0.02 0.02 0.03 0.04 0.04 0.04 0.04 0.04 0.07 0.09 0.07 0.06 0.05 0.06 0.10 0.11 0.10 0.12 0.10 0.11 0.10 0.10 0.09 0.07 0.06 0.06 0.06 0.06 0.05 0.05 0.04 0.06 0.07 0.09 0.10 0.11
0.01 0.01 0.01 0.02 0.04 0.05 0.05 0.05 0.06 0.08 0.10 0.13 0.13 0.10 0.08 0.07 0.13 0.14 0.12 0.12 0.12 0.09 0.09 0.08 0.07 0.05 0.04 0.04 0.04 0.04 0.03 0.03 0.03 0.04 0.04 0.04 0.04 0.05
0.01 0.01 0.01 0.02 0.04 0.05 0.05 0.07 0.11 0.15 0.16 0.18 0.16 0.12 0.08 0.10 0.13 0.14 0.13 0.09 0.06 0.06 0.09 0.10 0.11 0.10 0.09 0.09 0.07 0.05 0.03 0.02 0.02 0.02 0.02 0.03 0.03 0.03
0.01 0.02 0.02 0.02 0.02 0.02 0.05 0.10 0.16 0.19 0.19 0.19 0.18 0.16 0.12 0.12 0.14 0.15 0.15 0.15 0.12 0.09 0.14 0.11 0.12 0.12 0.12 0.15 0.14 0.08 0.05 0.03 0.02 0.01 0.01 0.01 0.02 0.03
0.03 0.03 0.02 0.01 0.02 0.04 0.05 0.07 0.07 0.08 0.14 0.21 0.22 0.19 0.17 0.17 0.20 0.21 0.22 0.24 0.19 0.14 0.21 0.17 0.12 0.13 0.13 0.14 0.13 0.09 0.07 0.06 0.04 0.02 0.01 0.01 0.01 0.01
0.03 0.03 0.03 0.03 0.04 0.05 0.04 0.03 0.03 0.05 0.07 0.12 0.18 0.18 0.18 0.19 0.23 0.26 0.27 0.27 0.20 0.17 0.27 0.27 0.14 0.13 0.12 0.17 0.18 0.13 0.10 0.09 0.07 0.05 0.03 0.02 0.02 0.02
0.02 0.02 0.03 0.05 0.06 0.07 0.05 0.05 0.05 0.05 0.05 0.08 0.14 0.20 0.22 0.24 0.26 0.28 0.35 0.38 0.27 0.15 0.24 0.32 0.22 0.17 0.15 0.18 0.20 0.17 0.13 0.11 0.08 0.06 0.05 0.05 0.05 0.04
0.01 0.02 0.03 0.06 0.05 0.05 0.04 0.07 0.11 0.09 0.10 0.15 0.22 0.27 0.30 0.37 0.39 0.37 0.41 0.41 0.33 0.28 0.27 0.31 0.28 0.24 0.21 0.17 0.18 0.19 0.17 0.15 0.12 0.10 0.08 0.07 0.08 0.07
0.02 0.03 0.06 0.07 0.05 0.04 0.06 0.10 0.14 0.14 0.19 0.26 0.27 0.27 0.28 0.32 0.33 0.32 0.33 0.35 0.38 0.41 0.35 0.32 0.29 0.27 0.26 0.18 0.14 0.15 0.17 0.20 0.21 0.20 0.18 0.15 0.11 0.09
0.04 0.06 0.08 0.08 0.06 0.09 0.10 0.13 0.15 0.20 0.27 0.30 0.28 0.27 0.25 0.26 0.27 0.25 0.26 0.28 0.33 0.37 0.33 0.31 0.31 0.27 0.22 0.15 0.14 0.15 0.20 0.27 0.35 0.40 0.35 0.30 0.19 0.13
0.05 0.08 0.10 0.11 0.13 0.17 0.19 0.19 0.23 0.28 0.30 0.29 0.29 0.28 0.24 0.21 0.19 0.18 0.20 0.26 0.31 0.31 0.28 0.23 0.26 0.24 0.20 0.19 0.19 0.21 0.21 0.26 0.34 0.43 0.44 0.39 0.28 0.17
0.04 0.08 0.15 0.21 0.24 0.27 0.29 0.31 0.31 0.30 0.27 0.27 0.26 0.23 0.17 0.14 0.13 0.15 0.19 0.23 0.27 0.27 0.23 0.20 0.20 0.21 0.23 0.23 0.22 0.24 0.22 0.28 0.35 0.42 0.47 0.49 0.41 0.26
0.02 0.06 0.12 0.17 0.21 0.22 0.25 0.28 0.30 0.27 0.24 0.22 0.21 0.19 0.15 0.13 0.13 0.14 0.17 0.18 0.21 0.25 0.23 0.20 0.20 0.19 0.18 0.18 0.22 0.23 0.22 0.28 0.40 0.45 0.47 0.56 0.58 0.42
0.03 0.07 0.11 0.15 0.20 0.20 0.22 0.25 0.26 0.25 0.23 0.21 0.20 0.18 0.16 0.16 0.18 0.17 0.17 0.18 0.22 0.22 0.21 0.19 0.16 0.12 0.11 0.14 0.25 0.29 0.28 0.39 0.47 0.44 0.39 0.48 0.64 0.59
0.05 0.08 0.12 0.17 0.20 0.19 0.20 0.24 0.27 0.26 0.23 0.20 0.19 0.17 0.16 0.16 0.15 0.15 0.16 0.16 0.15 0.14 0.14 0.12 0.11 0.11 0.10 0.16 0.30 0.49 0.48 0.45 0.43 0.39 0.38 0.44 0.63 0.67
0.08 0.11 0.13 0.16 0.20 0.21 0.20 0.20 0.21 0.20 0.18 0.18 0.18 0.16 0.15 0.14 0.13 0.12 0.11 0.10 0.10 0.10 0.10 0.10 0.11 0.11 0.11 0.17 0.42 0.61 0.63 0.44 0.35 0.41 0.49 0.50 0.61 0.63
0.11 0.14 0.17 0.17 0.19 0.21 0.21 0.19 0.17 0.15 0.13 0.13 0.14 0.15 0.15 0.13 0.10 0.08 0.07 0.07 0.08 0.08 0.09 0.12 0.15 0.13 0.08 0.06 0.23 0.46 0.57 0.66 0.57 0.55 0.58 0.52 0.41 0.31
0.13 0.16 0.15 0.15 0.17 0.16 0.14 0.14 0.14 0.12 0.10 0.10 0.11 0.10 0.10 0.10 0.08 0.07 0.06 0.05 0.05 0.05 0.06 0.08 0.09 0.08 0.07 0.07 0.18 0.35 0.41 0.43 0.46 0.52 0.55 0.40 0.24 0.23
0.16 0.16 0.15 0.14 0.14 0.13 0.11 0.09 0.08 0.08 0.09 0.10 0.09 0.07 0.06 0.05 0.04 0.03 0.02 0.01 0.01 0.01 0.02 0.02 0.03 0.03 0.03 0.03 0.07 0.13 0.15 0.13 0.10 0.13 0.29 0.37 0.32 0.33

GEFSNE_prec_meanprecacc_036.txt.gz
Total_Precipitation_Accumulation
0.00 0.00 0.00 0.00 0.00 0.01 0.01 0.01 0.02 0.02 0.01 0.00 0.00 0.00 0.00 0.00 0.00 0.00 0.00 0.01 0.02 0.02 0.02 0.02 0.02 0.02 0.03 0.04 0.04 0.05 0.05 0.05 0.05 0.07 0.10 0.17 0.23 0.27
0.01 0.01 0.02 0.01 0.02 0.02 0.02 0.03 0.03 0.04 0.03 0.01 0.00 0.00 0.00 0.00 0.00 0.01 0.01 0.02 0.02 0.03 0.03 0.04 0.04 0.03 0.03 0.04 0.05 0.06 0.06 0.06 0.06 0.07 0.08 0.09 0.14 0.21
0.02 0.03 0.03 0.04 0.04 0.04 0.04 0.04 0.03 0.03 0.04 0.02 0.01 0.01 0.02 0.03 0.03 0.04 0.04 0.06 0.06 0.07 0.08 0.08 0.07 0.07 0.07 0.08 0.09 0.10 0.10 0.10 0.10 0.10 0.10 0.10 0.11 0.13
0.03 0.04 0.04 0.04 0.05 0.05 0.04 0.04 0.04 0.05 0.06 0.05 0.03 0.02 0.03 0.04 0.06 0.08 0.06 0.05 0.07 0.07 0.10 0.10 0.10 0.11 0.10 0.10 0.09 0.09 0.09 0.09 0.09 0.10 0.12 0.13 0.14 0.14
0.02 0.02 0.02 0.02 0.03 0.04 0.04 0.04 0.04 0.04 0.07 0.09 0.07 0.06 0.05 0.06 0.11 0.11 0.10 0.12 0.10 0.11 0.10 0.10 0.09 0.08 0.07 0.06 0.06 0.06 0.05 0.05 0.05 0.06 0.07 0.09 0.11 0.12
0.01 0.01 0.01 0.02 0.04 0.05 0.05 0.05 0.06 0.08 0.10 0.13 0.13 0.10 0.08 0.07 0.13 0.14 0.12 0.12 0.12 0.09 0.09 0.08 0.07 0.05 0.04 0.04 0.04 0.04 0.04 0.03 0.04 0.04 0.04 0.04 0.05 0.05
0.01 0.01 0.01 0.02 0.04 0.05 0.05 0.07 0.11 0.15 0.16 0.18 0.16 0.12 0.09 0.10 0.13 0.15 0.14 0.10 0.06 0.06 0.10 0.10 0.11 0.10 0.09 0.09 0.07 0.06 0.04 0.03 0.02 0.02 0.03 0.03 0.03 0.03
0.01 0.02 0.02 0.02 0.02 0.02 0.05 0.10 0.16 0.19 0.19 0.20 0.18 0.17 0.12 0.13 0.15 0.16 0.17 0.17 0.14 0.10 0.14 0.11 0.12 0.12 0.12 0.15 0.15 0.09 0.05 0.04 0.03 0.02 0.01 0.01 0.02 0.03
0.03 0.03 0.02 0.01 0.02 0.04 0.05 0.07 0.07 0.08 0.14 0.22 0.23 0.20 0.18 0.18 0.23 0.23 0.24 0.25 0.20 0.15 0.22 0.18 0.12 0.13 0.13 0.14 0.14 0.10 0.08 0.06 0.04 0.03 0.01 0.01 0.01 0.01
0.03 0.03 0.03 0.03 0.04 0.05 0.04 0.03 0.03 0.05 0.08 0.12 0.19 0.19 0.19 0.21 0.25 0.27 0.28 0.28 0.21 0.18 0.28 0.28 0.14 0.13 0.12 0.17 0.20 0.14 0.11 0.09 0.08 0.05 0.03 0.02 0.02 0.02
0.02 0.02 0.03 0.05 0.06 0.07 0.05 0.05 0.05 0.05 0.05 0.08 0.14 0.21 0.23 0.26 0.27 0.30 0.36 0.40 0.30 0.17 0.25 0.33 0.22 0.17 0.15 0.19 0.21 0.18 0.14 0.12 0.09 0.06 0.06 0.05 0.05 0.04
0.01 0.02 0.03 0.06 0.05 0.05 0.04 0.07 0.11 0.09 0.10 0.15 0.22 0.28 0.31 0.39 0.40 0.38 0.43 0.43 0.36 0.31 0.28 0.33 0.29 0.25 0.22 0.17 0.18 0.19 0.17 0.16 0.13 0.10 0.08 0.07 0.09 0.08
0.02 0.03 0.06 0.07 0.05 0.04 0.06 0.10 0.14 0.14 0.19 0.27 0.28 0.28 0.29 0.33 0.34 0.32 0.34 0.37 0.41 0.44 0.37 0.36 0.34 0.31 0.30 0.20 0.14 0.16 0.17 0.20 0.21 0.21 0.20 0.17 0.13 0.10
0.04 0.06 0.08 0.08 0.06 0.09 0.10 0.13 0.15 0.21 0.28 0.31 0.30 0.28 0.26 0.26 0.27 0.26 0.26 0.29 0.34 0.39 0.35 0.34 0.37 0.33 0.27 0.18 0.16 0.16 0.20 0.28 0.36 0.41 0.37 0.33 0.22 0.16
0.05 0.08 0.10 0.11 0.13 0.17 0.19 0.20 0.24 0.29 0.31 0.31 0.30 0.29 0.25 0.21 0.19 0.18 0.21 0.26 0.32 0.32 0.28 0.25 0.28 0.27 0.24 0.22 0.23 0.23 0.23 0.28 0.37 0.46 0.48 0.43 0.32 0.21
0.04 0.08 0.15 0.21 0.24 0.27 0.30 0.33 0.33 0.32 0.29 0.28 0.27 0.23 0.18 0.14 0.13 0.15 0.20 0.23 0.27 0.28 0.23 0.21 0.21 0.23 0.26 0.24 0.25 0.27 0.25 0.33 0.40 0.46 0.51 0.53 0.46 0.31
0.02 0.06 0.12 0.17 0.21 0.23 0.26 0.29 0.31 0.29 0.25 0.23 0.21 0.19 0.15 0.13 0.13 0.14 0.17 0.18 0.21 0.25 0.23 0.21 0.20 0.19 0.19 0.20 0.25 0.26 0.25 0.32 0.44 0.50 0.52 0.62 0.65 0.49
0.03 0.07 0.12 0.17 0.21 0.22 0.23 0.26 0.28 0.27 0.24 0.21 0.20 0.18 0.16 0.16 0.18 0.18 0.17 0.18 0.22 0.23 0.21 0.19 0.16 0.13 0.11 0.16 0.29 0.33 0.31 0.42 0.51 0.48 0.43 0.54 0.74 0.69
0.06 0.10 0.14 0.19 0.23 0.21 0.21 0.25 0.28 0.27 0.24 0.21 0.19 0.17 0.17 0.16 0.15 0.16 0.16 0.16 0.16 0.15 0.14 0.13 0.13 0.12 0.12 0.19 0.33 0.53 0.51 0.48 0.46 0.43 0.42 0.49 0.70 0.76
0.11 0.14 0.16 0.19 0.23 0.24 0.22 0.22 0.22 0.21 0.19 0.18 0.18 0.16 0.15 0.14 0.13 0.12 0.11 0.10 0.11 0.10 0.10 0.11 0.13 0.14 0.15 0.21 0.45 0.64 0.66 0.48 0.39 0.45 0.53 0.54 0.67 0.71
0.13 0.16 0.18 0.19 0.21 0.23 0.22 0.20 0.17 0.16 0.14 0.13 0.15 0.15 0.15 0.13 0.10 0.09 0.08 0.07 0.08 0.08 0.09 0.12 0.16 0.16 0.11 0.09 0.26 0.49 0.60 0.70 0.61 0.58 0.61 0.55 0.45 0.35
0.15 0.17 0.17 0.17 0.19 0.18 0.15 0.14 0.14 0.12 0.11 0.11 0.11 0.11 0.10 0.10 0.08 0.07 0.06 0.05 0.05 0.05 0.06 0.08 0.10 0.09 0.08 0.10 0.22 0.39 0.45 0.45 0.48 0.54 0.57 0.42 0.26 0.25
0.17 0.18 0.16 0.15 0.15 0.14 0.12 0.09 0.08 0.08 0.09 0.10 0.10 0.08 0.07 0.05 0.04 0.03 0.02 0.02 0.02 0.02 0.02 0.03 0.03 0.03 0.04 0.05 0.09 0.16 0.18 0.15 0.11 0.15 0.32 0.41 0.36 0.38

GEFSNE_prec_meanprecacc_042.txt.gz
Total_Precipitation_Accumulation
0.00 0.00 0.00 0.00 0.01 0.01 0.01 0.01 0.02 0.02 0.01 0.00 0.00 0.00 0.00 0.00 0.00 0.00 0.00 0.01 0.02 0.02 0.02 0.02 0.02 0.03 0.03 0.04 0.05 0.06 0.06 0.06 0.07 0.08 0.12 0.19 0.26 0.31
0.01 0.01 0.02 0.01 0.02 0.02 0.02 0.03 0.03 0.04 0.03 0.01 0.00 0.00 0.00 0.00 0.00 0.01 0.01 0.02 0.02 0.03 0.03 0.04 0.04 0.04 0.04 0.05 0.06 0.07 0.08 0.08 0.08 0.09 0.10 0.12 0.17 0.25
0.03 0.03 0.03 0.04 0.04 0.04 0.04 0.04 0.03 0.03 0.04 0.02 0.01 0.01 0.02 0.03 0.03 0.04 0.04 0.06 0.06 0.07 0.08 0.08 0.07 0.07 0.07 0.09 0.10 0.11 0.12 0.11 0.11 0.11 0.11 0.12 0.13 0.16
0.03 0.04 0.04 0.04 0.05 0.05 0.04 0.04 0.04 0.05 0.06 0.05 0.03 0.02 0.03 0.04 0.06 0.08 0.06 0.05 0.07 0.07 0.10 0.10 0.10 0.11 0.11 0.10 0.10 0.09 0.09 0.09 0.10 0.11 0.12 0.14 0.16 0.17
0.02 0.02 0.02 0.02 0.03 0.04 0.04 0.04 0.04 0.04 0.07 0.09 0.07 0.06 0.05 0.06 0.11 0.11 0.10 0.12 0.10 0.11 0.10 0.10 0.09 0.08 0.07 0.07 0.06 0.06 0.05 0.05 0.05 0.06 0.08 0.10 0.12 0.14
0.01 0.01 0.01 0.02 0.04 0.05 0.05 0.05 0.06 0.08 0.10 0.13 0.13 0.10 0.08 0.07 0.13 0.14 0.12 0.12 0.12 0.09 0.09 0.08 0.07 0.05 0.04 0.04 0.04 0.04 0.04 0.03 0.04 0.04 0.04 0.05 0.05 0.06
0.01 0.01 0.01 0.02 0.04 0.05 0.05 0.07 0.11 0.15 0.16 0.18 0.16 0.12 0.09 0.10 0.13 0.15 0.14 0.10 0.07 0.06 0.10 0.10 0.11 0.10 0.09 0.09 0.07 0.06 0.04 0.03 0.03 0.03 0.03 0.04 0.04 0.04
0.01 0.02 0.02 0.02 0.02 0.02 0.05 0.10 0.16 0.19 0.19 0.20 0.18 0.17 0.12 0.13 0.15 0.17 0.18 0.18 0.14 0.10 0.14 0.11 0.12 0.12 0.12 0.15 0.15 0.09 0.06 0.05 0.04 0.03 0.02 0.02 0.02 0.03
0.03 0.03 0.02 0.01 0.02 0.04 0.05 0.07 0.07 0.08 0.14 0.22 0.23 0.20 0.19 0.19 0.24 0.24 0.25 0.26 0.21 0.16 0.23 0.18 0.12 0.13 0.13 0.14 0.14 0.11 0.09 0.07 0.05 0.04 0.02 0.02 0.02 0.02
0.03 0.03 0.03 0.03 0.04 0.05 0.04 0.03 0.03 0.05 0.08 0.12 0.19 0.19 0.20 0.21 0.25 0.28 0.29 0.28 0.21 0.18 0.28 0.28 0.15 0.13 0.12 0.17 0.20 0.15 0.11 0.10 0.08 0.06 0.04 0.03 0.03 0.03
0.02 0.02 0.03 0.05 0.06 0.07 0.05 0.05 0.05 0.05 0.05 0.08 0.14 0.21 0.23 0.26 0.28 0.30 0.37 0.40 0.30 0.17 0.25 0.33 0.23 0.17 0.15 0.19 0.21 0.18 0.14 0.12 0.09 0.07 0.06 0.06 0.06 0.05
0.01 0.02 0.03 0.06 0.05 0.05 0.04 0.07 0.11 0.09 0.10 0.15 0.23 0.28 0.31 0.39 0.40 0.38 0.43 0.44 0.37 0.32 0.29 0.35 0.31 0.28 0.25 0.18 0.18 0.19 0.17 0.16 0.13 0.11 0.09 0.09 0.11 0.09
0.02 0.03 0.06 0.07 0.05 0.04 0.06 0.10 0.14 0.14 0.19 0.27 0.28 0.28 0.29 0.33 0.34 0.32 0.34 0.37 0.41 0.45 0.38 0.38 0.36 0.35 0.35 0.23 0.15 0.16 0.18 0.21 0.22 0.23 0.22 0.19 0.15 0.13
0.04 0.06 0.08 0.08 0.06 0.09 0.10 0.13 0.15 0.21 0.28 0.31 0.30 0.28 0.26 0.26 0.27 0.26 0.26 0.29 0.34 0.39 0.35 0.34 0.39 0.36 0.31 0.23 0.19 0.17 0.21 0.29 0.38 0.44 0.40 0.36 0.25 0.21
0.05 0.08 0.10 0.11 0.13 0.17 0.20 0.21 0.24 0.30 0.31 0.31 0.30 0.29 0.25 0.21 0.19 0.18 0.21 0.26 0.32 0.32 0.28 0.25 0.29 0.28 0.26 0.25 0.27 0.27 0.26 0.30 0.39 0.49 0.51 0.47 0.37 0.26
0.04 0.08 0.15 0.21 0.24 0.28 0.30 0.33 0.34 0.32 0.29 0.28 0.27 0.23 0.18 0.14 0.13 0.15 0.20 0.23 0.27 0.28 0.24 0.21 0.22 0.23 0.27 0.26 0.27 0.30 0.29 0.37 0.43 0.49 0.55 0.58 0.51 0.36
0.03 0.07 0.14 0.18 0.22 0.24 0.26 0.29 0.31 0.29 0.25 0.23 0.21 0.19 0.15 0.13 0.13 0.14 0.17 0.18 0.21 0.25 0.24 0.21 0.21 0.19 0.20 0.21 0.27 0.29 0.28 0.36 0.47 0.53 0.56 0.67 0.70 0.54
0.06 0.11 0.15 0.18 0.23 0.23 0.23 0.26 0.28 0.27 0.24 0.21 0.20 0.18 0.16 0.16 0.18 0.18 0.17 0.18 0.22 0.23 0.22 0.20 0.17 0.13 0.12 0.17 0.31 0.36 0.33 0.45 0.53 0.50 0.45 0.58 0.79 0.74
0.12 0.16 0.18 0.21 0.24 0.22 0.22 0.25 0.28 0.27 0.24 0.21 0.19 0.17 0.17 0.16 0.15 0.16 0.16 0.16 0.16 0.15 0.15 0.14 0.13 0.14 0.14 0.21 0.35 0.55 0.54 0.51 0.48 0.44 0.44 0.52 0.75 0.81
0.18 0.19 0.19 0.22 0.25 0.25 0.22 0.22 0.22 0.21 0.19 0.19 0.18 0.17 0.15 0.14 0.13 0.12 0.11 0.10 0.11 0.10 0.10 0.11 0.13 0.15 0.17 0.23 0.48 0.67 0.68 0.50 0.41 0.47 0.55 0.57 0.71 0.76
0.18 0.19 0.21 0.20 0.21 0.23 0.22 0.20 0.17 0.16 0.14 0.14 0.15 0.15 0.15 0.13 0.10 0.09 0.08 0.07 0.08 0.09 0.10 0.12 0.16 0.16 0.12 0.11 0.28 0.52 0.62 0.72 0.63 0.59 0.62 0.56 0.47 0.37
0.17 0.19 0.18 0.17 0.19 0.18 0.15 0.14 0.14 0.13 0.11 0.11 0.11 0.11 0.11 0.10 0.09 0.08 0.06 0.06 0.05 0.05 0.07 0.09 0.10 0.10 0.09 0.10 0.23 0.41 0.47 0.47 0.49 0.55 0.58 0.43 0.27 0.27
0.18 0.18 0.16 0.15 0.15 0.14 0.12 0.09 0.08 0.09 0.09 0.11 0.10 0.08 0.07 0.05 0.05 0.03 0.03 0.02 0.02 0.02 0.02 0.03 0.04 0.04 0.04 0.06 0.10 0.17 0.19 0.17 0.12 0.16 0.33 0.44 0.39 0.42

GEFSNE_prec_meanprecacc_048.txt.gz
Total_Precipitation_Accumulation
0.02 0.01 0.01 0.01 0.01 0.01 0.01 0.01 0.02 0.02 0.01 0.00 0.00 0.00 0.00 0.00 0.00 0.00 0.00 0.01 0.02 0.02 0.02 0.02 0.02 0.03 0.03 0.04 0.05 0.06 0.07 0.08 0.09 0.11 0.15 0.23 0.30 0.35
0.02 0.02 0.02 0.02 0.02 0.02 0.02 0.03 0.03 0.04 0.03 0.01 0.00 0.00 0.00 0.00 0.00 0.01 0.01 0.02 0.02 0.03 0.03 0.04 0.04 0.04 0.04 0.05 0.07 0.08 0.09 0.10 0.10 0.12 0.13 0.16 0.22 0.29
0.04 0.04 0.04 0.04 0.05 0.04 0.04 0.04 0.03 0.03 0.04 0.02 0.01 0.01 0.02 0.03 0.03 0.04 0.04 0.06 0.06 0.07 0.08 0.08 0.07 0.07 0.07 0.09 0.11 0.12 0.13 0.12 0.12 0.12 0.13 0.14 0.15 0.18
0.06 0.05 0.05 0.05 0.06 0.05 0.05 0.04 0.04 0.05 0.07 0.06 0.03 0.02 0.03 0.04 0.06 0.08 0.06 0.05 0.07 0.07 0.10 0.10 0.11 0.11 0.11 0.10 0.10 0.10 0.09 0.09 0.10 0.11 0.13 0.15 0.17 0.18
0.05 0.04 0.03 0.03 0.04 0.04 0.04 0.04 0.04 0.04 0.07 0.09 0.07 0.06 0.05 0.06 0.11 0.11 0.10 0.13 0.10 0.11 0.10 0.10 0.09 0.08 0.07 0.07 0.06 0.06 0.05 0.05 0.05 0.06 0.08 0.10 0.13 0.15
0.03 0.02 0.02 0.03 0.04 0.06 0.05 0.06 0.07 0.09 0.11 0.14 0.13 0.10 0.09 0.08 0.14 0.15 0.13 0.13 0.12 0.09 0.09 0.08 0.07 0.05 0.04 0.04 0.04 0.04 0.04 0.03 0.04 0.04 0.05 0.05 0.05 0.06
0.01 0.01 0.01 0.03 0.04 0.05 0.06 0.08 0.12 0.15 0.17 0.19 0.16 0.12 0.09 0.12 0.16 0.17 0.16 0.11 0.07 0.07 0.11 0.11 0.12 0.11 0.10 0.10 0.08 0.06 0.04 0.03 0.03 0.03 0.03 0.04 0.04 0.04
0.02 0.02 0.02 0.02 0.02 0.02 0.05 0.10 0.16 0.19 0.20 0.21 0.19 0.18 0.15 0.16 0.19 0.19 0.20 0.20 0.15 0.11 0.16 0.12 0.13 0.14 0.15 0.17 0.15 0.09 0.06 0.05 0.04 0.03 0.02 0.02 0.02 0.03
0.03 0.03 0.03 0.01 0.03 0.04 0.05 0.07 0.07 0.08 0.14 0.22 0.25 0.23 0.22 0.22 0.27 0.26 0.27 0.29 0.23 0.17 0.25 0.20 0.13 0.15 0.15 0.15 0.15 0.11 0.09 0.07 0.05 0.04 0.03 0.02 0.02 0.03
0.03 0.03 0.04 0.04 0.05 0.05 0.04 0.04 0.05 0.07 0.09 0.13 0.21 0.22 0.22 0.23 0.27 0.30 0.31 0.30 0.23 0.21 0.32 0.31 0.16 0.15 0.13 0.20 0.21 0.15 0.11 0.10 0.08 0.06 0.04 0.03 0.03 0.03
0.02 0.02 0.03 0.05 0.07 0.07 0.05 0.06 0.08 0.10 0.07 0.08 0.15 0.21 0.24 0.27 0.28 0.30 0.39 0.43 0.33 0.19 0.28 0.36 0.25 0.19 0.16 0.21 0.23 0.18 0.14 0.12 0.09 0.07 0.06 0.07 0.07 0.06
0.01 0.02 0.04 0.06 0.05 0.05 0.04 0.09 0.15 0.14 0.14 0.18 0.25 0.30 0.33 0.41 0.41 0.39 0.46 0.47 0.40 0.35 0.32 0.38 0.34 0.32 0.28 0.20 0.21 0.22 0.22 0.19 0.14 0.12 0.10 0.09 0.12 0.13
0.03 0.05 0.09 0.07 0.05 0.05 0.06 0.11 0.16 0.15 0.21 0.30 0.33 0.32 0.33 0.37 0.38 0.35 0.37 0.40 0.45 0.49 0.41 0.41 0.40 0.40 0.41 0.27 0.17 0.19 0.22 0.26 0.26 0.27 0.25 0.21 0.17 0.15
0.06 0.09 0.11 0.08 0.07 0.09 0.10 0.14 0.16 0.22 0.31 0.36 0.35 0.33 0.30 0.30 0.30 0.28 0.29 0.33 0.39 0.43 0.39 0.38 0.43 0.42 0.38 0.28 0.23 0.19 0.24 0.33 0.43 0.49 0.45 0.40 0.28 0.23
0.07 0.09 0.11 0.12 0.14 0.21 0.21 0.21 0.26 0.35 0.37 0.36 0.36 0.34 0.28 0.24 0.21 0.21 0.24 0.30 0.37 0.36 0.31 0.29 0.34 0.34 0.32 0.31 0.32 0.31 0.29 0.33 0.44 0.55 0.57 0.52 0.43 0.32
0.07 0.11 0.18 0.24 0.27 0.32 0.35 0.39 0.40 0.37 0.33 0.34 0.34 0.29 0.22 0.18 0.18 0.19 0.23 0.27 0.32 0.34 0.28 0.25 0.27 0.28 0.32 0.30 0.31 0.35 0.33 0.42 0.49 0.55 0.61 0.64 0.57 0.42
0.06 0.13 0.21 0.26 0.31 0.32 0.35 0.39 0.41 0.37 0.32 0.30 0.30 0.27 0.22 0.19 0.19 0.18 0.21 0.22 0.26 0.30 0.29 0.25 0.25 0.24 0.23 0.23 0.30 0.32 0.32 0.40 0.53 0.58 0.62 0.73 0.75 0.59
0.11 0.18 0.21 0.24 0.29 0.30 0.30 0.33 0.36 0.35 0.30 0.27 0.27 0.26 0.22 0.21 0.23 0.23 0.22 0.23 0.27 0.28 0.27 0.24 0.20 0.16 0.15 0.19 0.32 0.38 0.37 0.48 0.58 0.55 0.50 0.62 0.84 0.79
0.19 0.23 0.24 0.27 0.31 0.28 0.27 0.32 0.36 0.34 0.29 0.26 0.25 0.23 0.21 0.19 0.20 0.21 0.21 0.20 0.20 0.20 0.20 0.17 0.17 0.17 0.17 0.25 0.38 0.57 0.56 0.53 0.51 0.48 0.48 0.56 0.80 0.85
0.24 0.24 0.24 0.27 0.30 0.29 0.26 0.26 0.27 0.25 0.23 0.22 0.22 0.19 0.18 0.18 0.18 0.18 0.16 0.14 0.15 0.16 0.16 0.16 0.15 0.18 0.22 0.28 0.52 0.70 0.69 0.51 0.43 0.50 0.58 0.61 0.75 0.79
0.21 0.22 0.23 0.23 0.24 0.27 0.25 0.22 0.20 0.18 0.16 0.15 0.16 0.17 0.17 0.15 0.14 0.13 0.12 0.09 0.11 0.12 0.14 0.17 0.19 0.18 0.16 0.15 0.32 0.56 0.65 0.73 0.63 0.60 0.64 0.60 0.50 0.39
0.19 0.21 0.20 0.18 0.20 0.19 0.16 0.15 0.15 0.14 0.12 0.11 0.11 0.11 0.11 0.12 0.11 0.10 0.09 0.08 0.07 0.07 0.10 0.12 0.13 0.12 0.12 0.14 0.27 0.45 0.50 0.49 0.50 0.55 0.58 0.43 0.28 0.29
0.19 0.19 0.17 0.16 0.15 0.14 0.12 0.09 0.09 0.09 0.09 0.11 0.10 0.08 0.07 0.07 0.05 0.04 0.03 0.03 0.03 0.03 0.04 0.07 0.07 0.07 0.07 0.09 0.15 0.21 0.22 0.19 0.15 0.17 0.34 0.44 0.40 0.43

GEFSNE_prec_meanprecacc_054.txt.gz
Total_Precipitation_Accumulation
0.06 0.05 0.05 0.04 0.04 0.04 0.04 0.04 0.06 0.06 0.05 0.03 0.02 0.02 0.01 0.01 0.00 0.00 0.00 0.01 0.02 0.02 0.02 0.02 0.02 0.03 0.03 0.04 0.05 0.06 0.07 0.08 0.09 0.11 0.16 0.25 0.32 0.38
0.06 0.06 0.06 0.06 0.06 0.06 0.06 0.07 0.07 0.08 0.07 0.03 0.02 0.01 0.01 0.00 0.00 0.01 0.01 0.02 0.02 0.03 0.03 0.04 0.04 0.04 0.04 0.05 0.07 0.08 0.09 0.10 0.11 0.12 0.15 0.17 0.24 0.32
0.12 0.12 0.12 0.11 0.10 0.09 0.09 0.08 0.07 0.07 0.08 0.04 0.02 0.02 0.02 0.03 0.03 0.04 0.04 0.06 0.06 0.07 0.08 0.08 0.07 0.07 0.07 0.09 0.11 0.12 0.13 0.12 0.12 0.13 0.14 0.15 0.16 0.20
0.15 0.14 0.13 0.11 0.12 0.10 0.09 0.08 0.08 0.09 0.09 0.08 0.05 0.03 0.04 0.05 0.07 0.09 0.06 0.05 0.07 0.07 0.10 0.10 0.11 0.11 0.11 0.10 0.10 0.10 0.09 0.09 0.10 0.11 0.13 0.15 0.17 0.19
0.12 0.11 0.09 0.08 0.08 0.08 0.08 0.07 0.06 0.06 0.08 0.11 0.08 0.06 0.05 0.07 0.11 0.12 0.11 0.15 0.10 0.11 0.11 0.10 0.09 0.08 0.07 0.07 0.06 0.06 0.05 0.05 0.05 0.06 0.08 0.10 0.13 0.16
0.06 0.05 0.04 0.05 0.07 0.08 0.07 0.07 0.08 0.10 0.11 0.15 0.14 0.11 0.09 0.09 0.17 0.18 0.15 0.15 0.14 0.10 0.10 0.09 0.08 0.05 0.05 0.05 0.05 0.05 0.04 0.04 0.04 0.04 0.05 0.05 0.05 0.06
0.02 0.02 0.02 0.03 0.05 0.06 0.06 0.08 0.13 0.16 0.18 0.20 0.17 0.13 0.11 0.16 0.20 0.21 0.18 0.13 0.09 0.09 0.13 0.12 0.14 0.13 0.13 0.12 0.09 0.06 0.04 0.03 0.03 0.03 0.03 0.04 0.04 0.04
0.02 0.02 0.02 0.02 0.02 0.02 0.05 0.10 0.16 0.19 0.20 0.21 0.20 0.20 0.18 0.22 0.25 0.23 0.23 0.22 0.17 0.13 0.19 0.14 0.16 0.17 0.17 0.19 0.16 0.09 0.06 0.05 0.04 0.03 0.02 0.02 0.02 0.03
0.04 0.04 0.03 0.02 0.03 0.05 0.06 0.07 0.08 0.09 0.15 0.22 0.26 0.26 0.27 0.29 0.32 0.29 0.30 0.31 0.25 0.20 0.29 0.23 0.17 0.18 0.16 0.16 0.15 0.11 0.09 0.07 0.05 0.04 0.03 0.02 0.02 0.03
0.04 0.04 0.05 0.05 0.06 0.06 0.04 0.05 0.08 0.13 0.13 0.15 0.23 0.25 0.25 0.26 0.29 0.31 0.32 0.32 0.27 0.27 0.37 0.34 0.19 0.17 0.14 0.22 0.22 0.15 0.11 0.10 0.08 0.06 0.04 0.03 0.03 0.03
0.03 0.03 0.04 0.06 0.07 0.07 0.05 0.08 0.13 0.18 0.11 0.09 0.15 0.22 0.24 0.27 0.28 0.31 0.40 0.47 0.38 0.25 0.35 0.39 0.28 0.22 0.17 0.22 0.24 0.19 0.15 0.13 0.09 0.07 0.06 0.07 0.07 0.06
0.05 0.07 0.06 0.06 0.05 0.05 0.04 0.11 0.19 0.21 0.19 0.23 0.30 0.35 0.37 0.44 0.42 0.40 0.48 0.52 0.47 0.42 0.39 0.42 0.38 0.35 0.30 0.21 0.22 0.25 0.25 0.21 0.15 0.12 0.10 0.10 0.12 0.14
0.08 0.15 0.16 0.08 0.05 0.05 0.06 0.11 0.18 0.16 0.22 0.35 0.42 0.43 0.43 0.47 0.46 0.41 0.45 0.49 0.54 0.58 0.49 0.47 0.44 0.45 0.46 0.31 0.19 0.21 0.26 0.31 0.32 0.32 0.28 0.21 0.17 0.16
0.13 0.17 0.17 0.09 0.07 0.09 0.11 0.14 0.16 0.22 0.34 0.45 0.46 0.44 0.41 0.40 0.39 0.36 0.39 0.45 0.52 0.54 0.49 0.47 0.50 0.48 0.43 0.33 0.26 0.21 0.26 0.37 0.49 0.57 0.54 0.44 0.31 0.25
0.11 0.10 0.11 0.12 0.15 0.25 0.23 0.21 0.26 0.38 0.46 0.48 0.48 0.45 0.37 0.31 0.27 0.27 0.32 0.42 0.50 0.45 0.37 0.35 0.41 0.41 0.37 0.35 0.36 0.34 0.32 0.37 0.51 0.63 0.66 0.60 0.49 0.37
0.09 0.13 0.21 0.27 0.30 0.37 0.41 0.45 0.47 0.46 0.41 0.45 0.44 0.38 0.28 0.24 0.24 0.26 0.31 0.36 0.43 0.44 0.35 0.30 0.32 0.33 0.34 0.32 0.34 0.38 0.37 0.47 0.54 0.63 0.71 0.73 0.63 0.46
0.06 0.17 0.32 0.38 0.43 0.47 0.49 0.53 0.55 0.50 0.43 0.42 0.41 0.37 0.30 0.27 0.25 0.24 0.28 0.30 0.36 0.39 0.36 0.31 0.30 0.29 0.25 0.24 0.31 0.34 0.35 0.45 0.58 0.65 0.70 0.81 0.81 0.62
0.12 0.25 0.33 0.36 0.40 0.41 0.41 0.44 0.49 0.48 0.41 0.37 0.37 0.34 0.29 0.27 0.28 0.28 0.28 0.31 0.36 0.36 0.33 0.29 0.25 0.22 0.19 0.22 0.33 0.39 0.39 0.52 0.63 0.61 0.56 0.69 0.89 0.83
0.23 0.31 0.33 0.36 0.39 0.36 0.36 0.41 0.44 0.41 0.34 0.31 0.30 0.28 0.25 0.24 0.25 0.26 0.26 0.26 0.27 0.28 0.26 0.21 0.19 0.20 0.21 0.29 0.41 0.58 0.57 0.55 0.54 0.52 0.52 0.62 0.85 0.88
0.30 0.31 0.31 0.34 0.37 0.37 0.33 0.32 0.32 0.27 0.24 0.24 0.24 0.22 0.20 0.21 0.22 0.23 0.20 0.17 0.20 0.22 0.21 0.18 0.16 0.20 0.25 0.32 0.55 0.73 0.70 0.51 0.44 0.52 0.62 0.67 0.80 0.81
0.25 0.26 0.28 0.28 0.29 0.32 0.28 0.24 0.21 0.18 0.16 0.16 0.17 0.17 0.18 0.17 0.17 0.16 0.13 0.09 0.13 0.16 0.18 0.20 0.20 0.19 0.20 0.20 0.37 0.59 0.67 0.73 0.63 0.60 0.65 0.62 0.53 0.41
0.22 0.24 0.22 0.19 0.21 0.21 0.17 0.16 0.16 0.14 0.12 0.11 0.12 0.11 0.12 0.13 0.12 0.10 0.09 0.09 0.09 0.10 0.13 0.16 0.15 0.15 0.16 0.19 0.32 0.49 0.53 0.51 0.50 0.55 0.58 0.43 0.28 0.29
0.20 0.20 0.18 0.16 0.15 0.14 0.12 0.10 0.09 0.09 0.09 0.11 0.10 0.08 0.07 0.07 0.06 0.04 0.04 0.04 0.04 0.04 0.06 0.09 0.10 0.10 0.10 0.13 0.19 0.26 0.26 0.21 0.16 0.18 0.34 0.45 0.40 0.43

GEFSNE_prec_meanprecacc_060.txt.gz
Total_Precipitation_Accumulation
0.09 0.09 0.09 0.08 0.08 0.08 0.09 0.10 0.14 0.18 0.18 0.16 0.13 0.11 0.09 0.08 0.08 0.06 0.04 0.04 0.04 0.03 0.03 0.03 0.03 0.03 0.04 0.05 0.06 0.07 0.08 0.08 0.10 0.12 0.17 0.26 0.34 0.40
0.10 0.11 0.12 0.12 0.13 0.14 0.15 0.15 0.16 0.18 0.18 0.14 0.12 0.10 0.08 0.07 0.06 0.05 0.04 0.05 0.04 0.04 0.04 0.05 0.05 0.04 0.04 0.06 0.07 0.09 0.10 0.11 0.11 0.13 0.15 0.18 0.25 0.33
0.17 0.17 0.17 0.17 0.16 0.14 0.14 0.13 0.12 0.14 0.17 0.15 0.12 0.11 0.10 0.09 0.08 0.07 0.07 0.08 0.07 0.08 0.09 0.09 0.07 0.07 0.08 0.09 0.11 0.12 0.13 0.13 0.13 0.13 0.14 0.16 0.17 0.21
0.18 0.18 0.17 0.16 0.17 0.16 0.15 0.14 0.14 0.15 0.16 0.16 0.12 0.09 0.09 0.08 0.09 0.11 0.08 0.06 0.08 0.08 0.11 0.11 0.11 0.11 0.11 0.11 0.10 0.10 0.10 0.09 0.10 0.12 0.14 0.16 0.19 0.21
0.15 0.14 0.12 0.11 0.11 0.11 0.10 0.09 0.08 0.08 0.11 0.14 0.11 0.09 0.08 0.08 0.13 0.13 0.12 0.16 0.11 0.11 0.11 0.10 0.09 0.08 0.07 0.07 0.07 0.06 0.06 0.05 0.05 0.06 0.08 0.11 0.14 0.17
0.07 0.06 0.05 0.05 0.07 0.08 0.08 0.08 0.09 0.10 0.12 0.16 0.15 0.12 0.10 0.10 0.18 0.19 0.15 0.15 0.14 0.10 0.10 0.09 0.08 0.06 0.05 0.05 0.05 0.05 0.04 0.04 0.04 0.05 0.05 0.05 0.06 0.07
0.02 0.02 0.02 0.03 0.05 0.06 0.06 0.08 0.13 0.16 0.18 0.20 0.18 0.14 0.12 0.16 0.21 0.21 0.18 0.13 0.09 0.09 0.13 0.12 0.14 0.13 0.13 0.12 0.09 0.06 0.04 0.03 0.03 0.03 0.03 0.04 0.04 0.04
0.02 0.02 0.02 0.02 0.02 0.02 0.05 0.10 0.16 0.19 0.20 0.21 0.20 0.21 0.19 0.22 0.25 0.23 0.23 0.22 0.18 0.13 0.19 0.14 0.16 0.17 0.17 0.19 0.16 0.09 0.06 0.05 0.04 0.03 0.02 0.02 0.03 0.03
0.04 0.04 0.03 0.02 0.03 0.05 0.06 0.07 0.08 0.09 0.15 0.23 0.26 0.26 0.27 0.29 0.32 0.29 0.30 0.32 0.26 0.21 0.29 0.23 0.17 0.18 0.16 0.16 0.15 0.11 0.09 0.07 0.05 0.04 0.03 0.02 0.02 0.03
0.04 0.04 0.05 0.05 0.06 0.06 0.04 0.05 0.08 0.13 0.13 0.16 0.24 0.25 0.25 0.26 0.29 0.31 0.32 0.32 0.27 0.27 0.38 0.34 0.19 0.17 0.14 0.22 0.22 0.15 0.11 0.10 0.08 0.06 0.04 0.03 0.03 0.03
0.04 0.03 0.04 0.07 0.07 0.07 0.05 0.08 0.13 0.18 0.11 0.10 0.16 0.22 0.24 0.27 0.28 0.31 0.40 0.47 0.38 0.26 0.35 0.40 0.28 0.22 0.17 0.22 0.24 0.19 0.15 0.13 0.09 0.07 0.06 0.07 0.07 0.06
0.05 0.08 0.06 0.06 0.05 0.05 0.04 0.11 0.19 0.21 0.19 0.23 0.31 0.35 0.37 0.45 0.43 0.41 0.49 0.52 0.47 0.42 0.39 0.43 0.38 0.35 0.30 0.21 0.23 0.25 0.25 0.21 0.15 0.12 0.10 0.10 0.12 0.14
0.08 0.15 0.16 0.08 0.05 0.05 0.06 0.11 0.18 0.16 0.22 0.36 0.43 0.43 0.44 0.48 0.47 0.43 0.46 0.51 0.55 0.59 0.51 0.48 0.45 0.45 0.46 0.31 0.19 0.21 0.26 0.31 0.32 0.33 0.29 0.22 0.18 0.17
0.13 0.17 0.17 0.09 0.07 0.09 0.11 0.14 0.16 0.22 0.35 0.46 0.48 0.46 0.42 0.41 0.41 0.38 0.41 0.47 0.54 0.56 0.50 0.49 0.51 0.48 0.43 0.33 0.26 0.21 0.26 0.37 0.49 0.57 0.54 0.45 0.32 0.26
0.11 0.10 0.11 0.12 0.15 0.25 0.23 0.21 0.26 0.39 0.47 0.49 0.49 0.47 0.39 0.34 0.30 0.29 0.33 0.43 0.51 0.46 0.38 0.36 0.42 0.41 0.38 0.35 0.36 0.34 0.32 0.37 0.51 0.64 0.67 0.61 0.50 0.38
0.10 0.14 0.21 0.27 0.31 0.38 0.42 0.46 0.48 0.47 0.43 0.47 0.46 0.40 0.29 0.25 0.25 0.27 0.32 0.37 0.43 0.44 0.36 0.30 0.32 0.33 0.35 0.32 0.34 0.38 0.37 0.47 0.55 0.63 0.72 0.75 0.65 0.47
0.06 0.17 0.32 0.39 0.44 0.48 0.51 0.54 0.57 0.51 0.45 0.43 0.42 0.38 0.31 0.29 0.26 0.25 0.28 0.30 0.36 0.40 0.36 0.31 0.30 0.29 0.25 0.24 0.31 0.34 0.35 0.45 0.58 0.65 0.71 0.83 0.83 0.63
0.12 0.26 0.33 0.37 0.41 0.42 0.42 0.45 0.50 0.50 0.43 0.38 0.38 0.35 0.30 0.29 0.29 0.28 0.28 0.31 0.36 0.37 0.33 0.29 0.25 0.22 0.19 0.22 0.33 0.39 0.39 0.52 0.63 0.61 0.57 0.70 0.90 0.83
0.24 0.32 0.34 0.37 0.40 0.37 0.36 0.41 0.45 0.41 0.35 0.32 0.31 0.28 0.26 0.24 0.25 0.27 0.26 0.26 0.27 0.28 0.26 0.21 0.19 0.20 0.21 0.29 0.41 0.58 0.57 0.55 0.54 0.52 0.53 0.62 0.85 0.89
0.31 0.31 0.32 0.34 0.37 0.37 0.33 0.32 0.32 0.27 0.24 0.24 0.24 0.22 0.21 0.22 0.22 0.23 0.20 0.17 0.20 0.22 0.21 0.18 0.16 0.20 0.25 0.32 0.55 0.73 0.70 0.52 0.44 0.52 0.62 0.68 0.80 0.81
0.26 0.26 0.28 0.28 0.29 0.32 0.28 0.24 0.21 0.18 0.16 0.16 0.17 0.18 0.18 0.17 0.17 0.16 0.13 0.09 0.13 0.16 0.19 0.20 0.20 0.19 0.20 0.20 0.37 0.60 0.67 0.73 0.63 0.60 0.65 0.62 0.53 0.41
0.22 0.24 0.22 0.19 0.21 0.21 0.17 0.16 0.16 0.14 0.12 0.11 0.12 0.12 0.12 0.13 0.12 0.10 0.09 0.09 0.09 0.10 0.13 0.16 0.16 0.15 0.16 0.19 0.32 0.49 0.53 0.51 0.51 0.56 0.58 0.43 0.28 0.29
0.20 0.20 0.18 0.16 0.15 0.14 0.12 0.10 0.09 0.09 0.09 0.11 0.10 0.08 0.07 0.07 0.06 0.04 0.04 0.04 0.04 0.04 0.06 0.09 0.10 0.10 0.10 0.13 0.19 0.26 0.26 0.21 0.16 0.18 0.34 0.45 0.40 0.44

GEFSNE_prec_meanprecacc_066.txt.gz
Total_Precipitation_Accumulation
0.10 0.10 0.10 0.09 0.09 0.09 0.10 0.12 0.17 0.22 0.23 0.21 0.20 0.19 0.19 0.19 0.23 0.17 0.13 0.16 0.15 0.13 0.12 0.11 0.10 0.09 0.09 0.09 0.10 0.10 0.10 0.10 0.11 0.14 0.18 0.27 0.35 0.42
0.10 0.11 0.12 0.12 0.14 0.15 0.16 0.16 0.17 0.21 0.23 0.21 0.19 0.18 0.18 0.17 0.19 0.14 0.13 0.15 0.12 0.11 0.11 0.11 0.11 0.10 0.09 0.10 0.11 0.12 0.12 0.12 0.13 0.14 0.17 0.20 0.27 0.36
0.17 0.17 0.18 0.18 0.18 0.16 0.16 0.15 0.14 0.17 0.21 0.21 0.18 0.17 0.18 0.18 0.17 0.16 0.15 0.15 0.13 0.14 0.14 0.14 0.12 0.10 0.10 0.12 0.13 0.14 0.14 0.14 0.14 0.14 0.15 0.18 0.20 0.24
0.19 0.18 0.18 0.17 0.18 0.17 0.17 0.16 0.16 0.17 0.19 0.19 0.16 0.14 0.13 0.13 0.14 0.16 0.13 0.11 0.12 0.12 0.14 0.13 0.13 0.13 0.12 0.11 0.11 0.10 0.10 0.10 0.11 0.12 0.15 0.17 0.20 0.23
0.15 0.14 0.13 0.12 0.12 0.11 0.10 0.09 0.09 0.09 0.12 0.15 0.13 0.11 0.10 0.11 0.15 0.16 0.15 0.18 0.13 0.13 0.12 0.11 0.10 0.09 0.08 0.07 0.07 0.06 0.06 0.05 0.05 0.06 0.08 0.11 0.15 0.17
0.07 0.06 0.05 0.05 0.07 0.08 0.08 0.08 0.09 0.11 0.13 0.16 0.16 0.14 0.13 0.12 0.20 0.21 0.17 0.17 0.15 0.10 0.11 0.09 0.08 0.06 0.05 0.05 0.05 0.05 0.04 0.04 0.04 0.05 0.05 0.05 0.06 0.07
0.02 0.02 0.02 0.03 0.05 0.06 0.06 0.08 0.13 0.16 0.18 0.20 0.19 0.15 0.13 0.17 0.22 0.22 0.19 0.14 0.09 0.09 0.13 0.12 0.14 0.13 0.13 0.12 0.09 0.06 0.04 0.03 0.03 0.03 0.03 0.04 0.04 0.04
0.02 0.02 0.02 0.02 0.02 0.02 0.05 0.10 0.16 0.19 0.20 0.21 0.20 0.21 0.19 0.22 0.25 0.23 0.23 0.22 0.18 0.13 0.19 0.14 0.16 0.17 0.17 0.19 0.16 0.09 0.06 0.05 0.04 0.03 0.02 0.02 0.03 0.03
0.04 0.04 0.03 0.02 0.03 0.05 0.06 0.07 0.08 0.09 0.15 0.23 0.26 0.26 0.27 0.29 0.32 0.29 0.30 0.32 0.26 0.21 0.29 0.23 0.17 0.18 0.16 0.16 0.15 0.11 0.09 0.07 0.05 0.04 0.03 0.02 0.02 0.03
0.04 0.04 0.05 0.05 0.06 0.06 0.04 0.05 0.08 0.13 0.13 0.16 0.24 0.25 0.25 0.26 0.30 0.31 0.32 0.33 0.27 0.27 0.38 0.34 0.19 0.17 0.14 0.22 0.22 0.15 0.11 0.10 0.08 0.06 0.05 0.03 0.03 0.03
0.04 0.03 0.04 0.07 0.07 0.07 0.05 0.08 0.13 0.18 0.12 0.10 0.16 0.22 0.25 0.28 0.29 0.31 0.41 0.47 0.38 0.26 0.35 0.40 0.28 0.22 0.17 0.22 0.24 0.19 0.15 0.13 0.09 0.07 0.07 0.07 0.07 0.07
0.05 0.08 0.06 0.06 0.05 0.05 0.04 0.11 0.19 0.21 0.20 0.24 0.31 0.35 0.37 0.45 0.44 0.42 0.49 0.53 0.48 0.42 0.39 0.43 0.38 0.35 0.30 0.21 0.23 0.25 0.25 0.21 0.15 0.13 0.10 0.10 0.13 0.15
0.08 0.15 0.16 0.08 0.05 0.05 0.06 0.11 0.18 0.16 0.22 0.36 0.43 0.43 0.44 0.48 0.48 0.44 0.47 0.51 0.55 0.60 0.51 0.48 0.45 0.45 0.46 0.31 0.19 0.21 0.26 0.31 0.32 0.33 0.29 0.22 0.19 0.18
0.13 0.18 0.17 0.09 0.07 0.09 0.11 0.14 0.16 0.23 0.35 0.47 0.48 0.46 0.43 0.42 0.42 0.39 0.42 0.48 0.54 0.56 0.51 0.49 0.51 0.49 0.43 0.33 0.26 0.21 0.27 0.37 0.49 0.58 0.54 0.45 0.33 0.28
0.11 0.11 0.12 0.13 0.15 0.25 0.23 0.21 0.27 0.40 0.48 0.50 0.50 0.48 0.40 0.35 0.32 0.31 0.34 0.43 0.51 0.47 0.38 0.36 0.42 0.41 0.38 0.35 0.36 0.34 0.32 0.37 0.51 0.64 0.67 0.62 0.51 0.39
0.10 0.14 0.22 0.28 0.31 0.38 0.42 0.46 0.48 0.48 0.44 0.48 0.47 0.40 0.30 0.26 0.26 0.28 0.33 0.37 0.44 0.44 0.36 0.31 0.32 0.33 0.35 0.32 0.34 0.38 0.37 0.47 0.55 0.63 0.72 0.76 0.65 0.48
0.07 0.17 0.33 0.39 0.45 0.48 0.51 0.55 0.57 0.51 0.45 0.43 0.42 0.38 0.31 0.29 0.26 0.25 0.28 0.31 0.36 0.40 0.36 0.31 0.30 0.29 0.25 0.24 0.31 0.34 0.35 0.45 0.58 0.65 0.72 0.84 0.83 0.64
0.13 0.27 0.34 0.37 0.42 0.42 0.42 0.45 0.50 0.50 0.43 0.38 0.38 0.35 0.30 0.29 0.29 0.28 0.28 0.31 0.36 0.37 0.33 0.29 0.25 0.22 0.19 0.22 0.33 0.39 0.39 0.52 0.63 0.62 0.57 0.70 0.91 0.84
0.24 0.32 0.34 0.37 0.40 0.37 0.36 0.41 0.45 0.41 0.35 0.32 0.31 0.28 0.26 0.24 0.25 0.27 0.26 0.26 0.27 0.28 0.26 0.21 0.19 0.20 0.21 0.29 0.41 0.58 0.57 0.55 0.54 0.52 0.53 0.62 0.85 0.89
0.31 0.31 0.32 0.34 0.37 0.37 0.33 0.32 0.32 0.27 0.24 0.24 0.24 0.22 0.21 0.22 0.22 0.23 0.20 0.17 0.20 0.22 0.21 0.18 0.16 0.20 0.25 0.32 0.56 0.73 0.70 0.52 0.44 0.52 0.62 0.68 0.80 0.82
0.26 0.26 0.28 0.28 0.29 0.32 0.28 0.24 0.21 0.18 0.16 0.16 0.17 0.18 0.18 0.17 0.17 0.16 0.13 0.09 0.13 0.16 0.19 0.20 0.20 0.19 0.20 0.20 0.37 0.60 0.67 0.73 0.64 0.60 0.65 0.62 0.53 0.41
0.22 0.24 0.22 0.19 0.21 0.21 0.17 0.16 0.16 0.14 0.12 0.11 0.12 0.12 0.12 0.13 0.12 0.10 0.09 0.09 0.09 0.10 0.14 0.16 0.16 0.15 0.16 0.19 0.32 0.49 0.53 0.51 0.51 0.56 0.58 0.44 0.28 0.29
0.20 0.20 0.18 0.16 0.15 0.14 0.12 0.10 0.09 0.09 0.09 0.11 0.10 0.08 0.07 0.07 0.06 0.04 0.04 0.04 0.04 0.04 0.06 0.09 0.10 0.10 0.10 0.13 0.19 0.26 0.26 0.21 0.16 0.18 0.34 0.45 0.40 0.44

GEFSNE_prec_meanprecacc_072.txt.gz
Total_Precipitation_Accumulation
0.11 0.11 0.11 0.11 0.10 0.10 0.11 0.14 0.19 0.23 0.24 0.22 0.21 0.21 0.22 0.22 0.29 0.22 0.18 0.23 0.22 0.20 0.20 0.19 0.19 0.19 0.21 0.22 0.23 0.25 0.25 0.24 0.23 0.24 0.27 0.35 0.43 0.49
0.10 0.11 0.13 0.13 0.14 0.15 0.16 0.16 0.18 0.21 0.24 0.22 0.20 0.20 0.21 0.20 0.23 0.18 0.17 0.21 0.18 0.17 0.17 0.18 0.17 0.17 0.17 0.18 0.21 0.23 0.22 0.21 0.20 0.20 0.22 0.25 0.32 0.40
0.17 0.17 0.18 0.18 0.18 0.16 0.16 0.15 0.14 0.17 0.21 0.22 0.20 0.19 0.20 0.21 0.20 0.19 0.18 0.19 0.18 0.18 0.19 0.18 0.16 0.15 0.16 0.17 0.18 0.18 0.18 0.17 0.17 0.17 0.19 0.21 0.22 0.26
0.19 0.18 0.18 0.17 0.18 0.17 0.17 0.16 0.16 0.18 0.20 0.20 0.18 0.15 0.16 0.16 0.16 0.17 0.15 0.13 0.15 0.15 0.16 0.15 0.15 0.15 0.15 0.14 0.12 0.11 0.11 0.11 0.12 0.14 0.16 0.19 0.21 0.23
0.15 0.14 0.13 0.12 0.12 0.11 0.10 0.09 0.09 0.09 0.13 0.16 0.15 0.13 0.12 0.13 0.17 0.18 0.17 0.21 0.15 0.14 0.14 0.12 0.12 0.10 0.09 0.07 0.07 0.07 0.06 0.05 0.05 0.06 0.09 0.12 0.15 0.17
0.07 0.06 0.05 0.05 0.07 0.08 0.08 0.08 0.09 0.11 0.13 0.17 0.17 0.15 0.14 0.13 0.22 0.23 0.19 0.20 0.17 0.11 0.12 0.10 0.09 0.06 0.05 0.05 0.05 0.05 0.04 0.04 0.04 0.05 0.05 0.05 0.06 0.07
0.02 0.02 0.02 0.03 0.05 0.06 0.06 0.08 0.13 0.17 0.18 0.21 0.19 0.16 0.14 0.19 0.24 0.24 0.21 0.17 0.13 0.11 0.16 0.15 0.17 0.18 0.17 0.14 0.10 0.06 0.04 0.03 0.03 0.03 0.03 0.04 0.04 0.04
0.02 0.02 0.02 0.02 0.02 0.02 0.05 0.10 0.16 0.19 0.20 0.22 0.21 0.22 0.21 0.25 0.27 0.25 0.25 0.26 0.22 0.17 0.22 0.18 0.19 0.21 0.20 0.22 0.17 0.09 0.06 0.05 0.04 0.03 0.02 0.02 0.03 0.03
0.04 0.04 0.03 0.02 0.03 0.05 0.06 0.07 0.09 0.09 0.15 0.23 0.28 0.28 0.30 0.32 0.35 0.32 0.34 0.35 0.31 0.25 0.33 0.28 0.21 0.22 0.18 0.17 0.15 0.11 0.09 0.07 0.05 0.04 0.03 0.02 0.02 0.03
0.04 0.04 0.05 0.06 0.06 0.06 0.04 0.05 0.09 0.13 0.14 0.16 0.25 0.27 0.27 0.28 0.32 0.33 0.35 0.36 0.33 0.33 0.41 0.39 0.23 0.21 0.17 0.24 0.23 0.15 0.11 0.10 0.08 0.06 0.05 0.03 0.03 0.03
0.04 0.03 0.04 0.07 0.07 0.07 0.06 0.10 0.16 0.20 0.12 0.10 0.16 0.22 0.25 0.28 0.29 0.33 0.44 0.53 0.46 0.34 0.40 0.44 0.33 0.25 0.20 0.25 0.26 0.19 0.15 0.13 0.09 0.07 0.07 0.07 0.07 0.07
0.05 0.08 0.06 0.06 0.05 0.05 0.05 0.12 0.21 0.23 0.21 0.25 0.33 0.37 0.40 0.47 0.45 0.44 0.54 0.59 0.54 0.50 0.46 0.47 0.43 0.39 0.34 0.25 0.26 0.27 0.27 0.22 0.15 0.13 0.10 0.10 0.13 0.16
0.08 0.15 0.16 0.08 0.05 0.05 0.07 0.12 0.19 0.17 0.23 0.38 0.45 0.46 0.47 0.52 0.51 0.46 0.50 0.56 0.61 0.66 0.55 0.52 0.50 0.49 0.50 0.36 0.22 0.23 0.28 0.33 0.34 0.35 0.30 0.23 0.19 0.19
0.13 0.18 0.17 0.09 0.07 0.10 0.11 0.15 0.17 0.23 0.37 0.48 0.50 0.49 0.46 0.46 0.46 0.42 0.45 0.51 0.57 0.60 0.54 0.53 0.56 0.53 0.47 0.38 0.30 0.23 0.28 0.39 0.51 0.60 0.57 0.47 0.34 0.28
0.11 0.11 0.12 0.13 0.15 0.25 0.24 0.21 0.27 0.41 0.49 0.52 0.53 0.50 0.43 0.38 0.35 0.34 0.37 0.47 0.54 0.48 0.40 0.38 0.45 0.44 0.41 0.39 0.39 0.37 0.34 0.38 0.52 0.66 0.70 0.64 0.54 0.41
0.10 0.14 0.22 0.28 0.31 0.38 0.42 0.47 0.49 0.49 0.45 0.49 0.49 0.42 0.32 0.29 0.30 0.31 0.35 0.40 0.48 0.47 0.37 0.31 0.34 0.36 0.38 0.36 0.37 0.41 0.39 0.49 0.56 0.65 0.75 0.79 0.68 0.49
0.07 0.18 0.33 0.40 0.46 0.49 0.52 0.56 0.58 0.52 0.46 0.44 0.44 0.40 0.33 0.31 0.28 0.26 0.30 0.34 0.40 0.43 0.38 0.32 0.31 0.30 0.27 0.26 0.33 0.36 0.37 0.47 0.59 0.66 0.74 0.87 0.86 0.65
0.13 0.27 0.34 0.38 0.42 0.43 0.43 0.46 0.51 0.50 0.44 0.39 0.39 0.36 0.32 0.30 0.30 0.29 0.29 0.33 0.39 0.38 0.34 0.29 0.25 0.23 0.21 0.23 0.34 0.40 0.40 0.53 0.64 0.63 0.59 0.73 0.93 0.85
0.24 0.33 0.35 0.37 0.40 0.38 0.36 0.41 0.45 0.42 0.35 0.33 0.32 0.29 0.27 0.25 0.26 0.28 0.27 0.27 0.28 0.28 0.26 0.22 0.19 0.21 0.23 0.31 0.42 0.58 0.58 0.57 0.56 0.55 0.55 0.64 0.87 0.90
0.31 0.31 0.32 0.34 0.37 0.37 0.33 0.32 0.32 0.27 0.24 0.24 0.25 0.22 0.21 0.22 0.23 0.24 0.21 0.18 0.21 0.24 0.23 0.19 0.17 0.21 0.27 0.34 0.56 0.73 0.70 0.52 0.45 0.54 0.64 0.69 0.82 0.82
0.26 0.26 0.28 0.28 0.29 0.32 0.28 0.24 0.21 0.18 0.16 0.16 0.17 0.18 0.18 0.18 0.18 0.17 0.14 0.10 0.13 0.17 0.21 0.21 0.20 0.19 0.20 0.21 0.38 0.61 0.67 0.73 0.64 0.60 0.65 0.63 0.54 0.43
0.22 0.24 0.22 0.19 0.21 0.21 0.17 0.16 0.16 0.14 0.12 0.11 0.12 0.12 0.12 0.13 0.12 0.10 0.10 0.09 0.10 0.11 0.15 0.17 0.16 0.15 0.17 0.20 0.34 0.51 0.54 0.51 0.51 0.56 0.58 0.44 0.29 0.30
0.21 0.20 0.18 0.16 0.15 0.14 0.12 0.10 0.09 0.09 0.09 0.11 0.10 0.08 0.07 0.07 0.06 0.04 0.04 0.04 0.04 0.04 0.06 0.10 0.10 0.10 0.11 0.13 0.19 0.26 0.26 0.22 0.16 0.18 0.34 0.45 0.40 0.44

GEFSNE_prec_meanprecacc_078.txt.gz
Total_Precipitation_Accumulation
0.13 0.13 0.13 0.12 0.12 0.12 0.13 0.16 0.21 0.26 0.27 0.24 0.23 0.22 0.22 0.23 0.30 0.23 0.19 0.24 0.22 0.21 0.21 0.20 0.21 0.22 0.24 0.26 0.29 0.31 0.32 0.32 0.33 0.35 0.40 0.47 0.55 0.62
0.12 0.12 0.13 0.14 0.15 0.16 0.17 0.18 0.19 0.23 0.26 0.23 0.21 0.20 0.21 0.21 0.24 0.18 0.18 0.22 0.18 0.18 0.18 0.19 0.18 0.18 0.18 0.21 0.24 0.26 0.26 0.26 0.26 0.27 0.29 0.32 0.39 0.47
0.18 0.18 0.19 0.19 0.18 0.17 0.16 0.16 0.15 0.18 0.23 0.23 0.21 0.20 0.21 0.22 0.21 0.19 0.19 0.20 0.19 0.19 0.19 0.18 0.17 0.16 0.17 0.19 0.20 0.21 0.21 0.20 0.20 0.21 0.23 0.25 0.27 0.31
0.20 0.19 0.18 0.17 0.18 0.18 0.17 0.17 0.17 0.19 0.21 0.21 0.18 0.16 0.16 0.16 0.17 0.18 0.15 0.14 0.15 0.15 0.16 0.16 0.15 0.16 0.16 0.15 0.14 0.13 0.12 0.12 0.13 0.15 0.18 0.21 0.24 0.26
0.16 0.15 0.13 0.12 0.12 0.11 0.11 0.10 0.09 0.10 0.13 0.16 0.15 0.13 0.12 0.13 0.18 0.18 0.17 0.21 0.15 0.15 0.14 0.13 0.12 0.11 0.09 0.08 0.08 0.08 0.07 0.06 0.06 0.07 0.09 0.12 0.16 0.18
0.07 0.06 0.05 0.05 0.07 0.08 0.08 0.08 0.09 0.11 0.13 0.17 0.17 0.15 0.14 0.14 0.23 0.25 0.21 0.21 0.18 0.12 0.12 0.11 0.09 0.07 0.06 0.06 0.06 0.05 0.05 0.04 0.04 0.05 0.05 0.05 0.06 0.07
0.02 0.02 0.02 0.03 0.05 0.06 0.06 0.08 0.13 0.17 0.18 0.21 0.20 0.18 0.16 0.21 0.26 0.26 0.23 0.19 0.16 0.13 0.18 0.19 0.20 0.21 0.21 0.16 0.10 0.06 0.04 0.03 0.03 0.03 0.03 0.04 0.04 0.04
0.02 0.03 0.02 0.03 0.02 0.02 0.05 0.10 0.16 0.19 0.20 0.23 0.23 0.25 0.25 0.27 0.29 0.27 0.28 0.29 0.28 0.22 0.26 0.23 0.23 0.26 0.26 0.25 0.18 0.09 0.06 0.05 0.04 0.03 0.02 0.02 0.03 0.03
0.04 0.05 0.03 0.02 0.03 0.05 0.06 0.07 0.09 0.10 0.15 0.23 0.30 0.31 0.33 0.35 0.37 0.35 0.37 0.39 0.37 0.31 0.38 0.35 0.26 0.26 0.21 0.17 0.15 0.11 0.09 0.07 0.05 0.04 0.03 0.02 0.02 0.03
0.04 0.05 0.05 0.06 0.06 0.06 0.05 0.06 0.11 0.14 0.14 0.16 0.26 0.29 0.28 0.29 0.33 0.36 0.39 0.42 0.43 0.42 0.47 0.46 0.29 0.26 0.21 0.26 0.23 0.15 0.11 0.10 0.08 0.06 0.05 0.03 0.03 0.03
0.04 0.03 0.04 0.07 0.07 0.07 0.07 0.12 0.18 0.22 0.12 0.10 0.16 0.22 0.25 0.28 0.29 0.34 0.48 0.59 0.54 0.42 0.45 0.50 0.39 0.31 0.26 0.30 0.27 0.19 0.15 0.13 0.09 0.07 0.07 0.07 0.07 0.07
0.06 0.08 0.06 0.06 0.05 0.05 0.06 0.15 0.23 0.25 0.23 0.27 0.35 0.39 0.41 0.48 0.45 0.45 0.59 0.65 0.61 0.57 0.50 0.52 0.48 0.45 0.42 0.31 0.30 0.29 0.28 0.23 0.15 0.13 0.10 0.10 0.13 0.16
0.09 0.16 0.16 0.08 0.05 0.05 0.07 0.13 0.19 0.17 0.24 0.40 0.48 0.48 0.49 0.55 0.54 0.49 0.55 0.61 0.66 0.72 0.58 0.56 0.54 0.54 0.57 0.43 0.28 0.26 0.31 0.36 0.37 0.36 0.31 0.23 0.19 0.19
0.14 0.18 0.17 0.09 0.07 0.10 0.11 0.15 0.17 0.24 0.38 0.50 0.53 0.51 0.49 0.49 0.49 0.45 0.48 0.54 0.61 0.63 0.57 0.57 0.61 0.59 0.55 0.46 0.37 0.28 0.31 0.42 0.54 0.64 0.61 0.48 0.35 0.28
0.12 0.11 0.12 0.13 0.15 0.26 0.24 0.21 0.28 0.42 0.51 0.54 0.56 0.53 0.46 0.41 0.38 0.36 0.40 0.49 0.56 0.49 0.41 0.41 0.50 0.49 0.48 0.46 0.45 0.41 0.37 0.40 0.55 0.69 0.74 0.69 0.57 0.43
0.10 0.14 0.22 0.28 0.32 0.39 0.43 0.48 0.50 0.50 0.46 0.51 0.52 0.45 0.34 0.31 0.32 0.33 0.38 0.44 0.52 0.50 0.38 0.32 0.36 0.40 0.44 0.40 0.41 0.44 0.41 0.51 0.58 0.67 0.79 0.83 0.70 0.50
0.07 0.19 0.35 0.41 0.47 0.50 0.53 0.57 0.59 0.52 0.46 0.45 0.45 0.42 0.35 0.32 0.31 0.28 0.33 0.37 0.44 0.46 0.39 0.32 0.31 0.31 0.29 0.28 0.36 0.39 0.39 0.48 0.61 0.69 0.78 0.92 0.89 0.66
0.13 0.28 0.35 0.39 0.43 0.43 0.43 0.47 0.52 0.51 0.44 0.40 0.40 0.37 0.33 0.32 0.32 0.30 0.31 0.35 0.42 0.40 0.35 0.30 0.26 0.24 0.24 0.25 0.34 0.41 0.42 0.55 0.66 0.66 0.63 0.76 0.97 0.86
0.24 0.34 0.35 0.37 0.41 0.38 0.37 0.42 0.46 0.42 0.35 0.33 0.32 0.30 0.27 0.26 0.27 0.29 0.28 0.29 0.30 0.29 0.27 0.22 0.20 0.23 0.26 0.34 0.44 0.58 0.59 0.58 0.58 0.57 0.57 0.67 0.90 0.91
0.32 0.32 0.32 0.34 0.37 0.37 0.33 0.32 0.32 0.28 0.24 0.24 0.25 0.22 0.21 0.22 0.23 0.25 0.22 0.19 0.22 0.24 0.24 0.20 0.17 0.21 0.28 0.36 0.58 0.74 0.70 0.52 0.45 0.54 0.65 0.71 0.83 0.83
0.26 0.27 0.28 0.28 0.29 0.32 0.28 0.24 0.21 0.18 0.16 0.16 0.17 0.18 0.18 0.18 0.18 0.18 0.15 0.10 0.14 0.18 0.22 0.22 0.20 0.19 0.21 0.22 0.39 0.62 0.68 0.73 0.64 0.60 0.65 0.63 0.55 0.44
0.22 0.24 0.22 0.19 0.21 0.21 0.17 0.16 0.16 0.14 0.12 0.11 0.12 0.12 0.12 0.13 0.13 0.11 0.10 0.10 0.11 0.11 0.15 0.17 0.16 0.15 0.17 0.21 0.35 0.52 0.54 0.51 0.51 0.56 0.58 0.44 0.29 0.30
0.21 0.20 0.18 0.16 0.15 0.14 0.12 0.10 0.09 0.09 0.09 0.11 0.10 0.08 0.07 0.07 0.06 0.04 0.04 0.04 0.04 0.04 0.06 0.10 0.10 0.10 0.11 0.13 0.19 0.26 0.26 0.22 0.16 0.18 0.34 0.45 0.40 0.44

GEFSNE_prec_meanprecacc_084.txt.gz
Total_Precipitation_Accumulation
0.21 0.19 0.17 0.16 0.14 0.14 0.14 0.17 0.22 0.27 0.28 0.24 0.23 0.22 0.23 0.24 0.30 0.23 0.19 0.24 0.23 0.21 0.21 0.21 0.21 0.22 0.25 0.27 0.29 0.32 0.33 0.34 0.35 0.39 0.44 0.52 0.60 0.68
0.15 0.15 0.15 0.15 0.15 0.16 0.17 0.18 0.19 0.23 0.26 0.23 0.22 0.21 0.22 0.21 0.25 0.18 0.18 0.22 0.18 0.18 0.18 0.19 0.18 0.18 0.19 0.21 0.25 0.27 0.28 0.28 0.28 0.29 0.32 0.35 0.42 0.51
0.19 0.19 0.20 0.19 0.19 0.17 0.17 0.16 0.16 0.18 0.23 0.23 0.21 0.20 0.21 0.22 0.21 0.19 0.19 0.20 0.19 0.19 0.19 0.19 0.17 0.16 0.17 0.19 0.20 0.21 0.21 0.22 0.22 0.23 0.25 0.27 0.30 0.34
0.20 0.19 0.19 0.17 0.19 0.18 0.18 0.17 0.17 0.19 0.21 0.21 0.19 0.16 0.16 0.16 0.17 0.18 0.15 0.14 0.15 0.15 0.16 0.16 0.15 0.16 0.16 0.15 0.14 0.13 0.12 0.12 0.14 0.16 0.19 0.22 0.25 0.28
0.16 0.15 0.13 0.12 0.12 0.12 0.11 0.10 0.10 0.10 0.13 0.16 0.15 0.13 0.12 0.13 0.18 0.18 0.17 0.21 0.15 0.15 0.14 0.13 0.12 0.11 0.09 0.08 0.08 0.08 0.07 0.06 0.06 0.07 0.09 0.13 0.16 0.18
0.07 0.06 0.05 0.05 0.07 0.08 0.08 0.08 0.09 0.11 0.13 0.18 0.17 0.15 0.14 0.14 0.23 0.25 0.21 0.21 0.18 0.12 0.12 0.11 0.09 0.07 0.06 0.06 0.06 0.05 0.05 0.04 0.04 0.05 0.05 0.05 0.06 0.07
0.02 0.02 0.02 0.03 0.05 0.06 0.06 0.08 0.13 0.17 0.18 0.21 0.20 0.18 0.16 0.21 0.26 0.26 0.23 0.20 0.16 0.13 0.18 0.19 0.20 0.21 0.21 0.16 0.10 0.06 0.04 0.03 0.03 0.03 0.03 0.04 0.04 0.04
0.02 0.03 0.02 0.03 0.02 0.02 0.05 0.10 0.16 0.19 0.20 0.23 0.23 0.25 0.25 0.28 0.30 0.27 0.28 0.29 0.28 0.22 0.26 0.24 0.23 0.26 0.26 0.25 0.18 0.09 0.06 0.05 0.04 0.03 0.02 0.02 0.03 0.04
0.04 0.05 0.03 0.02 0.03 0.05 0.06 0.07 0.09 0.10 0.15 0.23 0.30 0.31 0.33 0.36 0.38 0.35 0.37 0.39 0.38 0.32 0.39 0.36 0.27 0.26 0.21 0.17 0.15 0.11 0.09 0.07 0.05 0.04 0.03 0.02 0.02 0.03
0.04 0.05 0.05 0.06 0.06 0.06 0.05 0.06 0.11 0.14 0.14 0.16 0.26 0.29 0.28 0.29 0.34 0.37 0.40 0.42 0.43 0.42 0.47 0.47 0.30 0.26 0.21 0.26 0.23 0.15 0.11 0.10 0.08 0.06 0.05 0.03 0.03 0.03
0.04 0.03 0.04 0.07 0.07 0.07 0.07 0.12 0.18 0.22 0.12 0.10 0.16 0.22 0.25 0.28 0.29 0.34 0.49 0.61 0.56 0.43 0.46 0.50 0.40 0.32 0.26 0.30 0.27 0.19 0.15 0.13 0.09 0.07 0.07 0.07 0.07 0.07
0.06 0.08 0.06 0.06 0.05 0.05 0.06 0.15 0.23 0.25 0.23 0.27 0.35 0.39 0.41 0.48 0.45 0.45 0.59 0.66 0.63 0.58 0.50 0.52 0.49 0.46 0.42 0.31 0.30 0.29 0.28 0.23 0.15 0.13 0.10 0.10 0.13 0.16
0.09 0.16 0.16 0.08 0.05 0.05 0.07 0.13 0.19 0.17 0.24 0.40 0.48 0.48 0.49 0.55 0.54 0.49 0.55 0.62 0.67 0.73 0.59 0.56 0.55 0.55 0.58 0.43 0.28 0.27 0.31 0.36 0.37 0.36 0.31 0.23 0.19 0.19
0.14 0.18 0.17 0.09 0.07 0.10 0.11 0.15 0.17 0.24 0.38 0.50 0.53 0.51 0.49 0.49 0.49 0.45 0.48 0.54 0.61 0.64 0.58 0.57 0.62 0.60 0.55 0.46 0.37 0.28 0.31 0.42 0.54 0.64 0.61 0.48 0.35 0.28
0.12 0.11 0.12 0.13 0.15 0.26 0.24 0.21 0.28 0.42 0.51 0.54 0.56 0.53 0.46 0.41 0.38 0.36 0.40 0.49 0.56 0.50 0.41 0.41 0.50 0.50 0.48 0.46 0.46 0.41 0.37 0.40 0.55 0.69 0.74 0.69 0.57 0.43
0.10 0.14 0.22 0.28 0.32 0.39 0.43 0.48 0.50 0.50 0.46 0.51 0.52 0.45 0.34 0.31 0.32 0.33 0.38 0.44 0.52 0.50 0.38 0.32 0.36 0.40 0.44 0.41 0.41 0.44 0.41 0.51 0.58 0.67 0.79 0.83 0.70 0.50
0.07 0.19 0.35 0.41 0.47 0.50 0.53 0.57 0.59 0.52 0.46 0.45 0.45 0.42 0.35 0.33 0.31 0.28 0.33 0.37 0.44 0.46 0.40 0.32 0.32 0.31 0.29 0.29 0.36 0.39 0.39 0.48 0.61 0.69 0.78 0.92 0.89 0.66
0.13 0.28 0.35 0.39 0.43 0.43 0.43 0.47 0.52 0.51 0.44 0.40 0.40 0.37 0.33 0.32 0.32 0.31 0.31 0.35 0.42 0.40 0.35 0.30 0.26 0.24 0.24 0.26 0.34 0.41 0.42 0.55 0.66 0.66 0.63 0.77 0.97 0.86
0.24 0.34 0.35 0.37 0.41 0.38 0.37 0.42 0.46 0.42 0.36 0.33 0.32 0.30 0.28 0.26 0.27 0.29 0.29 0.29 0.30 0.30 0.27 0.22 0.20 0.23 0.26 0.34 0.44 0.58 0.59 0.58 0.58 0.57 0.57 0.67 0.90 0.91
0.32 0.32 0.32 0.34 0.37 0.37 0.33 0.32 0.32 0.28 0.24 0.24 0.25 0.22 0.21 0.22 0.23 0.25 0.22 0.19 0.22 0.24 0.24 0.20 0.17 0.21 0.28 0.36 0.58 0.74 0.70 0.52 0.45 0.54 0.65 0.71 0.83 0.83
0.26 0.27 0.28 0.28 0.29 0.32 0.28 0.24 0.21 0.18 0.16 0.16 0.17 0.18 0.18 0.18 0.18 0.18 0.15 0.10 0.14 0.18 0.22 0.22 0.20 0.19 0.21 0.22 0.39 0.62 0.68 0.73 0.64 0.60 0.65 0.63 0.55 0.44
0.22 0.24 0.22 0.19 0.21 0.21 0.17 0.16 0.16 0.14 0.12 0.12 0.12 0.12 0.12 0.13 0.13 0.11 0.10 0.10 0.11 0.11 0.15 0.17 0.16 0.15 0.17 0.21 0.35 0.52 0.54 0.51 0.51 0.56 0.58 0.44 0.29 0.30
0.21 0.20 0.18 0.16 0.15 0.14 0.12 0.10 0.09 0.09 0.09 0.11 0.10 0.08 0.07 0.07 0.06 0.04 0.04 0.04 0.04 0.04 0.06 0.10 0.10 0.10 0.11 0.13 0.19 0.26 0.26 0.22 0.16 0.18 0.34 0.45 0.40 0.44

GEFSNE_prec_meanprecacc_090.txt.gz
Total_Precipitation_Accumulation
0.39 0.36 0.33 0.30 0.28 0.27 0.26 0.27 0.31 0.35 0.33 0.28 0.25 0.24 0.23 0.25 0.32 0.23 0.19 0.24 0.23 0.21 0.21 0.21 0.21 0.23 0.25 0.27 0.29 0.32 0.34 0.35 0.36 0.39 0.45 0.53 0.62 0.71
0.30 0.30 0.28 0.26 0.26 0.25 0.24 0.23 0.23 0.26 0.29 0.25 0.22 0.22 0.23 0.22 0.25 0.18 0.19 0.22 0.19 0.18 0.18 0.19 0.19 0.18 0.19 0.21 0.25 0.27 0.28 0.29 0.29 0.30 0.33 0.37 0.45 0.54
0.28 0.29 0.30 0.28 0.25 0.21 0.20 0.19 0.19 0.20 0.25 0.25 0.22 0.21 0.22 0.22 0.22 0.19 0.19 0.20 0.19 0.19 0.19 0.19 0.17 0.16 0.17 0.19 0.20 0.21 0.22 0.22 0.22 0.23 0.26 0.29 0.31 0.35
0.25 0.24 0.23 0.22 0.21 0.20 0.19 0.18 0.18 0.20 0.22 0.23 0.20 0.17 0.16 0.16 0.17 0.19 0.15 0.14 0.15 0.15 0.16 0.16 0.15 0.16 0.16 0.15 0.14 0.13 0.12 0.12 0.14 0.16 0.19 0.23 0.27 0.29
0.18 0.17 0.15 0.13 0.13 0.12 0.11 0.10 0.10 0.10 0.14 0.17 0.16 0.14 0.12 0.13 0.18 0.19 0.17 0.21 0.15 0.15 0.14 0.13 0.12 0.11 0.09 0.08 0.08 0.08 0.07 0.06 0.06 0.07 0.09 0.13 0.16 0.19
0.08 0.06 0.05 0.05 0.07 0.09 0.08 0.08 0.09 0.11 0.13 0.18 0.18 0.16 0.15 0.14 0.23 0.25 0.21 0.21 0.18 0.12 0.12 0.11 0.09 0.07 0.06 0.06 0.06 0.05 0.05 0.04 0.04 0.05 0.05 0.05 0.06 0.07
0.02 0.02 0.02 0.03 0.05 0.06 0.06 0.09 0.13 0.17 0.19 0.21 0.20 0.18 0.16 0.21 0.26 0.26 0.23 0.20 0.16 0.14 0.18 0.19 0.21 0.21 0.21 0.16 0.10 0.06 0.04 0.03 0.03 0.03 0.03 0.04 0.04 0.04
0.02 0.03 0.02 0.03 0.02 0.02 0.05 0.10 0.16 0.19 0.20 0.23 0.23 0.25 0.25 0.28 0.30 0.27 0.28 0.29 0.28 0.22 0.26 0.24 0.24 0.26 0.26 0.25 0.18 0.10 0.06 0.05 0.04 0.03 0.02 0.02 0.03 0.04
0.04 0.05 0.03 0.02 0.03 0.05 0.06 0.07 0.09 0.10 0.15 0.23 0.30 0.31 0.33 0.36 0.38 0.35 0.37 0.39 0.38 0.32 0.39 0.36 0.27 0.27 0.21 0.18 0.15 0.11 0.09 0.07 0.05 0.04 0.03 0.02 0.02 0.03
0.04 0.05 0.05 0.06 0.06 0.06 0.05 0.06 0.11 0.14 0.14 0.16 0.26 0.29 0.28 0.29 0.34 0.37 0.40 0.42 0.43 0.43 0.48 0.47 0.30 0.27 0.21 0.27 0.23 0.15 0.11 0.10 0.08 0.06 0.05 0.03 0.03 0.03
0.04 0.03 0.04 0.07 0.07 0.07 0.07 0.12 0.18 0.22 0.12 0.10 0.16 0.22 0.25 0.28 0.29 0.34 0.49 0.61 0.56 0.43 0.46 0.51 0.40 0.33 0.27 0.30 0.27 0.19 0.15 0.13 0.09 0.07 0.07 0.07 0.07 0.07
0.06 0.08 0.06 0.06 0.05 0.05 0.06 0.15 0.23 0.25 0.23 0.27 0.35 0.39 0.41 0.48 0.45 0.45 0.59 0.66 0.63 0.59 0.51 0.53 0.50 0.46 0.42 0.31 0.30 0.29 0.28 0.23 0.15 0.13 0.10 0.10 0.13 0.16
0.09 0.16 0.16 0.08 0.05 0.05 0.07 0.13 0.19 0.17 0.24 0.40 0.48 0.48 0.49 0.55 0.54 0.49 0.55 0.62 0.68 0.74 0.59 0.57 0.55 0.55 0.58 0.43 0.28 0.27 0.31 0.36 0.37 0.36 0.31 0.23 0.19 0.19
0.14 0.18 0.17 0.09 0.07 0.10 0.11 0.15 0.17 0.24 0.38 0.50 0.53 0.51 0.49 0.49 0.49 0.45 0.48 0.54 0.62 0.65 0.58 0.57 0.62 0.60 0.55 0.46 0.37 0.28 0.31 0.42 0.54 0.64 0.61 0.48 0.35 0.28
0.12 0.11 0.12 0.13 0.15 0.26 0.24 0.21 0.28 0.42 0.51 0.54 0.56 0.53 0.46 0.41 0.38 0.36 0.40 0.49 0.56 0.50 0.41 0.41 0.50 0.50 0.48 0.47 0.46 0.41 0.37 0.40 0.55 0.69 0.74 0.69 0.57 0.43
0.10 0.14 0.22 0.28 0.32 0.39 0.43 0.48 0.50 0.50 0.46 0.51 0.52 0.45 0.34 0.31 0.32 0.33 0.38 0.44 0.52 0.50 0.38 0.32 0.36 0.40 0.44 0.41 0.41 0.44 0.41 0.51 0.58 0.67 0.79 0.83 0.70 0.50
0.07 0.19 0.35 0.41 0.47 0.50 0.53 0.57 0.59 0.52 0.46 0.45 0.45 0.42 0.35 0.33 0.31 0.28 0.33 0.37 0.44 0.46 0.40 0.32 0.32 0.31 0.29 0.29 0.36 0.39 0.39 0.48 0.61 0.69 0.78 0.92 0.89 0.66
0.13 0.28 0.35 0.39 0.43 0.43 0.43 0.47 0.52 0.51 0.44 0.40 0.40 0.37 0.33 0.32 0.32 0.31 0.31 0.35 0.42 0.40 0.35 0.30 0.26 0.24 0.24 0.26 0.34 0.41 0.42 0.55 0.66 0.66 0.63 0.77 0.97 0.86
0.24 0.34 0.35 0.37 0.41 0.38 0.37 0.42 0.46 0.42 0.36 0.33 0.32 0.30 0.28 0.26 0.27 0.29 0.29 0.29 0.30 0.30 0.27 0.22 0.20 0.23 0.26 0.34 0.44 0.58 0.59 0.58 0.58 0.57 0.57 0.67 0.90 0.91
0.32 0.32 0.32 0.34 0.37 0.37 0.33 0.32 0.32 0.28 0.24 0.24 0.25 0.22 0.21 0.22 0.23 0.25 0.22 0.19 0.22 0.24 0.24 0.20 0.17 0.21 0.28 0.36 0.58 0.74 0.70 0.52 0.45 0.54 0.65 0.71 0.83 0.83
0.26 0.27 0.28 0.28 0.29 0.32 0.28 0.24 0.21 0.18 0.16 0.16 0.17 0.18 0.18 0.18 0.19 0.18 0.15 0.10 0.14 0.18 0.22 0.22 0.20 0.19 0.21 0.22 0.39 0.62 0.68 0.73 0.64 0.60 0.65 0.63 0.55 0.44
0.22 0.24 0.22 0.19 0.21 0.21 0.17 0.16 0.16 0.14 0.12 0.12 0.12 0.12 0.12 0.13 0.13 0.11 0.10 0.10 0.11 0.11 0.15 0.17 0.16 0.15 0.17 0.21 0.35 0.52 0.54 0.51 0.51 0.56 0.58 0.44 0.29 0.30
0.21 0.20 0.18 0.16 0.15 0.14 0.12 0.10 0.09 0.09 0.09 0.11 0.10 0.08 0.07 0.07 0.06 0.04 0.04 0.04 0.04 0.04 0.06 0.10 0.10 0.10 0.11 0.13 0.19 0.26 0.26 0.22 0.16 0.18 0.34 0.45 0.40 0.44

GEFSNE_prec_meanprecacc_096.txt.gz
Total_Precipitation_Accumulation
0.63 0.66 0.67 0.63 0.58 0.57 0.57 0.57 0.59 0.62 0.59 0.48 0.41 0.34 0.30 0.30 0.36 0.26 0.21 0.27 0.25 0.23 0.23 0.22 0.22 0.23 0.25 0.27 0.30 0.32 0.34 0.35 0.36 0.39 0.45 0.53 0.62 0.71
0.46 0.50 0.54 0.54 0.54 0.53 0.53 0.50 0.47 0.48 0.49 0.42 0.36 0.32 0.30 0.27 0.29 0.21 0.20 0.24 0.20 0.19 0.19 0.19 0.19 0.18 0.19 0.21 0.25 0.28 0.28 0.29 0.29 0.30 0.33 0.37 0.45 0.54
0.44 0.47 0.51 0.51 0.50 0.48 0.46 0.44 0.43 0.42 0.43 0.40 0.34 0.29 0.27 0.25 0.23 0.21 0.20 0.20 0.19 0.19 0.19 0.19 0.17 0.16 0.17 0.19 0.20 0.21 0.22 0.22 0.23 0.24 0.26 0.29 0.31 0.35
0.35 0.37 0.39 0.39 0.40 0.39 0.37 0.36 0.36 0.36 0.35 0.34 0.29 0.23 0.20 0.18 0.19 0.20 0.16 0.14 0.16 0.16 0.17 0.16 0.15 0.16 0.16 0.15 0.14 0.13 0.12 0.12 0.14 0.16 0.20 0.24 0.27 0.29
0.26 0.25 0.25 0.24 0.24 0.23 0.21 0.19 0.19 0.18 0.20 0.22 0.21 0.17 0.15 0.15 0.19 0.19 0.18 0.22 0.15 0.15 0.14 0.13 0.12 0.11 0.09 0.08 0.08 0.08 0.07 0.06 0.06 0.07 0.09 0.13 0.16 0.19
0.16 0.14 0.13 0.13 0.14 0.15 0.14 0.13 0.13 0.14 0.16 0.20 0.20 0.17 0.16 0.15 0.24 0.26 0.22 0.22 0.18 0.12 0.12 0.11 0.09 0.07 0.06 0.06 0.06 0.05 0.05 0.04 0.04 0.05 0.05 0.05 0.06 0.07
0.08 0.07 0.07 0.08 0.09 0.09 0.09 0.11 0.15 0.19 0.20 0.22 0.21 0.18 0.17 0.22 0.26 0.26 0.23 0.20 0.16 0.14 0.19 0.19 0.21 0.22 0.21 0.16 0.10 0.06 0.04 0.03 0.03 0.03 0.03 0.04 0.04 0.04
0.06 0.05 0.05 0.05 0.04 0.04 0.06 0.11 0.17 0.20 0.21 0.23 0.23 0.25 0.25 0.28 0.30 0.28 0.28 0.29 0.29 0.23 0.27 0.24 0.24 0.27 0.27 0.26 0.18 0.10 0.06 0.05 0.04 0.03 0.02 0.02 0.03 0.04
0.06 0.06 0.04 0.02 0.04 0.06 0.06 0.08 0.09 0.10 0.15 0.24 0.30 0.31 0.33 0.36 0.38 0.36 0.37 0.40 0.38 0.33 0.39 0.37 0.27 0.27 0.21 0.18 0.15 0.11 0.09 0.07 0.05 0.04 0.03 0.02 0.02 0.03
0.05 0.05 0.06 0.06 0.06 0.06 0.05 0.06 0.11 0.14 0.14 0.16 0.26 0.29 0.28 0.29 0.34 0.37 0.41 0.43 0.44 0.43 0.48 0.48 0.30 0.27 0.21 0.27 0.23 0.15 0.11 0.10 0.08 0.06 0.05 0.03 0.03 0.03
0.04 0.04 0.04 0.07 0.07 0.07 0.07 0.12 0.18 0.22 0.12 0.10 0.16 0.22 0.25 0.28 0.29 0.34 0.49 0.62 0.57 0.44 0.46 0.51 0.41 0.33 0.28 0.31 0.27 0.19 0.15 0.13 0.09 0.07 0.07 0.07 0.07 0.07
0.06 0.08 0.06 0.06 0.05 0.05 0.07 0.15 0.23 0.25 0.23 0.28 0.36 0.39 0.41 0.49 0.45 0.46 0.59 0.66 0.64 0.61 0.51 0.53 0.50 0.47 0.43 0.31 0.30 0.29 0.28 0.23 0.15 0.13 0.10 0.10 0.13 0.16
0.09 0.16 0.16 0.08 0.05 0.05 0.07 0.13 0.19 0.17 0.25 0.40 0.48 0.49 0.50 0.56 0.54 0.49 0.55 0.63 0.69 0.75 0.60 0.57 0.57 0.56 0.58 0.44 0.28 0.27 0.31 0.36 0.37 0.37 0.31 0.23 0.19 0.19
0.14 0.18 0.17 0.09 0.07 0.10 0.11 0.15 0.17 0.24 0.38 0.50 0.53 0.52 0.49 0.50 0.49 0.46 0.49 0.54 0.62 0.66 0.59 0.58 0.64 0.62 0.57 0.47 0.37 0.28 0.31 0.42 0.54 0.64 0.61 0.48 0.35 0.28
0.12 0.11 0.12 0.13 0.15 0.26 0.24 0.21 0.28 0.42 0.51 0.55 0.56 0.54 0.46 0.41 0.38 0.37 0.40 0.49 0.56 0.50 0.41 0.42 0.52 0.52 0.50 0.48 0.46 0.41 0.37 0.40 0.55 0.70 0.74 0.69 0.57 0.43
0.10 0.14 0.22 0.28 0.32 0.39 0.43 0.48 0.50 0.50 0.46 0.52 0.53 0.45 0.35 0.31 0.33 0.34 0.39 0.45 0.53 0.51 0.38 0.32 0.36 0.41 0.45 0.42 0.42 0.44 0.42 0.51 0.58 0.67 0.79 0.83 0.70 0.50
0.08 0.19 0.35 0.41 0.47 0.51 0.54 0.57 0.59 0.52 0.46 0.46 0.46 0.42 0.36 0.33 0.31 0.28 0.33 0.38 0.45 0.47 0.40 0.33 0.32 0.32 0.29 0.29 0.37 0.40 0.39 0.49 0.61 0.69 0.78 0.92 0.89 0.66
0.13 0.28 0.35 0.39 0.43 0.44 0.44 0.48 0.52 0.51 0.44 0.40 0.40 0.37 0.34 0.33 0.33 0.31 0.31 0.36 0.43 0.41 0.36 0.30 0.26 0.25 0.25 0.26 0.34 0.41 0.42 0.56 0.66 0.66 0.63 0.77 0.98 0.87
0.25 0.34 0.35 0.38 0.41 0.38 0.37 0.42 0.46 0.42 0.36 0.33 0.32 0.30 0.28 0.27 0.28 0.29 0.29 0.29 0.30 0.30 0.27 0.22 0.21 0.24 0.27 0.35 0.44 0.58 0.59 0.59 0.58 0.57 0.57 0.67 0.91 0.92
0.32 0.32 0.32 0.34 0.38 0.37 0.33 0.32 0.32 0.28 0.24 0.24 0.25 0.22 0.21 0.23 0.24 0.26 0.23 0.20 0.22 0.25 0.24 0.20 0.17 0.22 0.29 0.36 0.58 0.74 0.70 0.52 0.45 0.55 0.65 0.71 0.83 0.83
0.26 0.27 0.28 0.28 0.30 0.32 0.28 0.24 0.21 0.18 0.17 0.17 0.17 0.18 0.18 0.18 0.19 0.18 0.15 0.10 0.14 0.19 0.22 0.22 0.20 0.19 0.21 0.22 0.39 0.62 0.68 0.73 0.64 0.61 0.65 0.63 0.55 0.44
0.22 0.24 0.22 0.19 0.22 0.21 0.17 0.16 0.16 0.14 0.12 0.12 0.12 0.12 0.12 0.13 0.13 0.11 0.10 0.10 0.11 0.11 0.15 0.17 0.16 0.15 0.17 0.21 0.36 0.52 0.55 0.51 0.51 0.56 0.58 0.44 0.29 0.30
0.21 0.20 0.18 0.16 0.15 0.14 0.12 0.10 0.09 0.09 0.09 0.11 0.10 0.08 0.07 0.07 0.06 0.04 0.04 0.04 0.04 0.04 0.06 0.10 0.10 0.10 0.11 0.13 0.19 0.26 0.26 0.22 0.16 0.18 0.34 0.45 0.40 0.44

GEFSNE_prec_meanprecacc_102.txt.gz
Total_Precipitation_Accumulation
0.73 0.80 0.87 0.88 0.86 0.88 0.91 0.92 0.94 0.97 0.90 0.76 0.68 0.60 0.53 0.48 0.53 0.38 0.29 0.34 0.30 0.26 0.25 0.24 0.24 0.25 0.27 0.29 0.31 0.34 0.36 0.36 0.37 0.40 0.46 0.54 0.63 0.72
0.53 0.59 0.68 0.74 0.78 0.82 0.85 0.83 0.76 0.75 0.78 0.69 0.61 0.55 0.50 0.43 0.43 0.29 0.26 0.29 0.23 0.21 0.21 0.20 0.20 0.19 0.20 0.22 0.26 0.29 0.29 0.29 0.30 0.31 0.33 0.37 0.45 0.54
0.51 0.54 0.60 0.63 0.67 0.68 0.67 0.68 0.70 0.71 0.75 0.72 0.62 0.54 0.48 0.42 0.35 0.28 0.25 0.24 0.22 0.21 0.21 0.19 0.17 0.16 0.17 0.20 0.21 0.22 0.22 0.22 0.23 0.24 0.26 0.29 0.31 0.36
0.42 0.42 0.46 0.48 0.51 0.52 0.53 0.54 0.56 0.59 0.62 0.64 0.58 0.48 0.41 0.34 0.29 0.27 0.21 0.17 0.18 0.17 0.17 0.16 0.16 0.16 0.16 0.15 0.14 0.13 0.12 0.12 0.14 0.16 0.20 0.24 0.27 0.29
0.32 0.30 0.31 0.32 0.34 0.34 0.35 0.36 0.36 0.37 0.40 0.43 0.41 0.35 0.30 0.26 0.27 0.25 0.22 0.24 0.16 0.15 0.14 0.13 0.12 0.11 0.10 0.08 0.08 0.08 0.07 0.06 0.06 0.07 0.09 0.13 0.16 0.19
0.23 0.20 0.20 0.20 0.22 0.25 0.25 0.26 0.28 0.30 0.32 0.34 0.31 0.28 0.24 0.21 0.29 0.29 0.24 0.23 0.19 0.12 0.12 0.11 0.09 0.07 0.06 0.06 0.06 0.05 0.05 0.04 0.04 0.05 0.05 0.05 0.06 0.07
0.16 0.15 0.15 0.18 0.19 0.20 0.20 0.22 0.27 0.30 0.30 0.30 0.27 0.24 0.21 0.25 0.29 0.28 0.25 0.21 0.17 0.14 0.19 0.20 0.21 0.22 0.22 0.16 0.10 0.06 0.04 0.03 0.03 0.03 0.03 0.04 0.04 0.04
0.15 0.15 0.15 0.15 0.15 0.15 0.17 0.21 0.28 0.29 0.27 0.28 0.27 0.28 0.27 0.29 0.31 0.29 0.29 0.31 0.31 0.24 0.28 0.26 0.25 0.28 0.28 0.27 0.18 0.10 0.06 0.05 0.04 0.03 0.02 0.02 0.03 0.04
0.14 0.15 0.13 0.11 0.13 0.14 0.14 0.15 0.16 0.15 0.18 0.26 0.32 0.33 0.35 0.38 0.40 0.38 0.39 0.43 0.41 0.34 0.41 0.39 0.28 0.28 0.22 0.18 0.15 0.11 0.09 0.07 0.05 0.04 0.03 0.03 0.03 0.03
0.11 0.12 0.13 0.14 0.13 0.12 0.10 0.11 0.14 0.17 0.16 0.19 0.28 0.30 0.29 0.31 0.35 0.39 0.43 0.46 0.47 0.44 0.49 0.49 0.31 0.27 0.22 0.27 0.23 0.15 0.11 0.10 0.08 0.06 0.05 0.03 0.03 0.03
0.10 0.09 0.10 0.13 0.12 0.11 0.10 0.15 0.21 0.24 0.13 0.11 0.16 0.23 0.25 0.28 0.30 0.36 0.52 0.65 0.61 0.46 0.47 0.52 0.41 0.34 0.29 0.31 0.27 0.19 0.15 0.13 0.09 0.07 0.07 0.07 0.07 0.07
0.09 0.11 0.09 0.09 0.08 0.07 0.10 0.17 0.25 0.26 0.24 0.28 0.36 0.39 0.42 0.49 0.45 0.48 0.62 0.69 0.67 0.63 0.52 0.54 0.51 0.47 0.44 0.32 0.30 0.29 0.28 0.23 0.15 0.13 0.10 0.10 0.13 0.16
0.12 0.18 0.17 0.09 0.05 0.05 0.08 0.14 0.20 0.18 0.26 0.42 0.50 0.51 0.52 0.57 0.55 0.50 0.57 0.65 0.72 0.78 0.61 0.58 0.59 0.58 0.61 0.45 0.28 0.27 0.31 0.36 0.37 0.37 0.31 0.23 0.19 0.19
0.17 0.19 0.18 0.10 0.07 0.10 0.11 0.15 0.17 0.24 0.39 0.51 0.55 0.54 0.51 0.52 0.51 0.47 0.49 0.55 0.64 0.67 0.60 0.59 0.66 0.66 0.60 0.50 0.38 0.28 0.32 0.42 0.54 0.65 0.61 0.49 0.35 0.28
0.13 0.12 0.12 0.13 0.15 0.26 0.24 0.22 0.28 0.43 0.52 0.56 0.58 0.55 0.47 0.42 0.39 0.38 0.41 0.50 0.57 0.51 0.42 0.42 0.54 0.54 0.52 0.51 0.48 0.42 0.38 0.40 0.55 0.70 0.75 0.69 0.57 0.43
0.11 0.14 0.22 0.28 0.32 0.39 0.43 0.48 0.50 0.50 0.47 0.53 0.54 0.47 0.36 0.32 0.33 0.34 0.40 0.46 0.54 0.52 0.38 0.32 0.37 0.42 0.47 0.43 0.43 0.45 0.42 0.51 0.58 0.68 0.80 0.84 0.71 0.51
0.08 0.20 0.35 0.42 0.47 0.51 0.54 0.57 0.59 0.52 0.47 0.47 0.46 0.43 0.37 0.34 0.32 0.29 0.34 0.38 0.46 0.48 0.41 0.33 0.32 0.32 0.30 0.30 0.37 0.40 0.40 0.49 0.62 0.69 0.79 0.92 0.89 0.66
0.13 0.29 0.36 0.39 0.43 0.44 0.44 0.48 0.52 0.51 0.44 0.40 0.40 0.38 0.34 0.34 0.34 0.32 0.32 0.37 0.44 0.41 0.36 0.31 0.27 0.26 0.26 0.26 0.35 0.41 0.43 0.56 0.67 0.66 0.63 0.78 0.98 0.87
0.25 0.35 0.36 0.38 0.41 0.38 0.37 0.42 0.46 0.42 0.36 0.33 0.32 0.30 0.28 0.27 0.29 0.30 0.30 0.30 0.31 0.30 0.27 0.22 0.21 0.24 0.28 0.36 0.44 0.58 0.59 0.59 0.59 0.58 0.58 0.68 0.92 0.92
0.32 0.33 0.32 0.34 0.38 0.38 0.33 0.32 0.32 0.28 0.24 0.24 0.25 0.22 0.21 0.23 0.25 0.27 0.23 0.20 0.23 0.25 0.24 0.20 0.17 0.22 0.30 0.37 0.58 0.74 0.70 0.52 0.46 0.56 0.65 0.71 0.83 0.83
0.26 0.27 0.28 0.28 0.30 0.32 0.28 0.24 0.21 0.18 0.17 0.17 0.17 0.18 0.18 0.19 0.19 0.18 0.15 0.10 0.14 0.19 0.22 0.22 0.20 0.19 0.21 0.22 0.39 0.62 0.68 0.73 0.64 0.61 0.65 0.64 0.55 0.44
0.23 0.24 0.22 0.19 0.22 0.21 0.17 0.16 0.16 0.14 0.12 0.12 0.12 0.12 0.12 0.13 0.13 0.11 0.10 0.10 0.11 0.11 0.15 0.17 0.16 0.15 0.17 0.21 0.36 0.52 0.55 0.51 0.51 0.56 0.58 0.44 0.29 0.30
0.21 0.20 0.18 0.16 0.15 0.14 0.12 0.10 0.09 0.09 0.09 0.11 0.10 0.08 0.07 0.07 0.06 0.04 0.04 0.04 0.04 0.04 0.06 0.10 0.10 0.10 0.11 0.13 0.19 0.26 0.26 0.22 0.16 0.18 0.34 0.45 0.40 0.44

GEFSNE_prec_meanprecacc_108.txt.gz
Total_Precipitation_Accumulation
0.83 0.92 0.98 1.00 0.99 1.01 1.05 1.06 1.08 1.14 1.08 0.93 0.85 0.78 0.68 0.61 0.67 0.49 0.38 0.45 0.39 0.34 0.32 0.30 0.28 0.27 0.28 0.29 0.31 0.34 0.36 0.36 0.37 0.41 0.46 0.55 0.64 0.72
0.65 0.71 0.81 0.88 0.91 0.95 0.98 0.96 0.90 0.88 0.92 0.84 0.75 0.69 0.64 0.58 0.60 0.42 0.37 0.41 0.32 0.28 0.26 0.25 0.23 0.21 0.21 0.23 0.26 0.29 0.29 0.29 0.30 0.31 0.33 0.37 0.45 0.55
0.65 0.69 0.73 0.75 0.77 0.77 0.78 0.79 0.82 0.84 0.90 0.87 0.76 0.68 0.62 0.55 0.49 0.40 0.34 0.32 0.29 0.27 0.25 0.23 0.20 0.18 0.18 0.20 0.21 0.22 0.22 0.22 0.23 0.24 0.26 0.29 0.31 0.36
0.50 0.52 0.54 0.54 0.57 0.59 0.61 0.62 0.66 0.70 0.74 0.78 0.72 0.61 0.55 0.47 0.41 0.38 0.29 0.24 0.23 0.22 0.21 0.19 0.17 0.17 0.16 0.15 0.14 0.13 0.12 0.12 0.14 0.16 0.20 0.24 0.27 0.29
0.35 0.34 0.35 0.36 0.39 0.41 0.42 0.44 0.45 0.46 0.50 0.53 0.53 0.47 0.42 0.37 0.36 0.33 0.28 0.29 0.20 0.18 0.16 0.14 0.13 0.12 0.10 0.08 0.08 0.08 0.07 0.06 0.06 0.07 0.09 0.13 0.16 0.19
0.26 0.23 0.23 0.24 0.27 0.30 0.31 0.33 0.34 0.38 0.41 0.44 0.43 0.40 0.35 0.29 0.36 0.35 0.29 0.27 0.22 0.14 0.14 0.12 0.10 0.07 0.06 0.06 0.06 0.05 0.05 0.04 0.04 0.05 0.05 0.05 0.06 0.07
0.19 0.18 0.19 0.23 0.26 0.26 0.25 0.28 0.33 0.37 0.38 0.38 0.36 0.33 0.30 0.33 0.35 0.32 0.29 0.24 0.20 0.16 0.20 0.20 0.21 0.23 0.22 0.16 0.10 0.06 0.04 0.03 0.03 0.03 0.03 0.04 0.04 0.04
0.18 0.19 0.19 0.21 0.22 0.22 0.24 0.29 0.36 0.38 0.37 0.36 0.35 0.35 0.32 0.34 0.35 0.32 0.32 0.33 0.33 0.24 0.28 0.26 0.25 0.28 0.29 0.27 0.18 0.10 0.06 0.05 0.04 0.03 0.02 0.02 0.03 0.04
0.17 0.18 0.17 0.16 0.18 0.18 0.20 0.24 0.26 0.26 0.28 0.34 0.39 0.38 0.39 0.41 0.42 0.40 0.41 0.44 0.42 0.34 0.41 0.39 0.28 0.28 0.22 0.18 0.15 0.11 0.09 0.07 0.05 0.04 0.03 0.03 0.03 0.03
0.15 0.16 0.17 0.19 0.18 0.17 0.15 0.16 0.21 0.24 0.23 0.24 0.32 0.33 0.32 0.33 0.37 0.40 0.43 0.46 0.47 0.45 0.49 0.49 0.31 0.27 0.22 0.27 0.23 0.15 0.11 0.10 0.08 0.06 0.05 0.03 0.03 0.03
0.13 0.13 0.15 0.19 0.19 0.17 0.16 0.20 0.25 0.28 0.17 0.15 0.19 0.25 0.26 0.29 0.30 0.37 0.52 0.65 0.61 0.46 0.47 0.52 0.41 0.34 0.29 0.31 0.27 0.20 0.15 0.13 0.09 0.07 0.07 0.07 0.07 0.07
0.12 0.14 0.14 0.13 0.13 0.11 0.13 0.21 0.29 0.29 0.27 0.31 0.38 0.41 0.42 0.49 0.46 0.48 0.63 0.70 0.67 0.63 0.52 0.54 0.51 0.47 0.44 0.32 0.31 0.30 0.28 0.23 0.15 0.13 0.10 0.10 0.13 0.16
0.14 0.20 0.20 0.11 0.08 0.08 0.10 0.16 0.22 0.20 0.28 0.44 0.52 0.52 0.52 0.57 0.55 0.51 0.57 0.65 0.72 0.78 0.61 0.59 0.59 0.58 0.61 0.45 0.28 0.27 0.31 0.36 0.37 0.37 0.31 0.23 0.19 0.19
0.18 0.21 0.20 0.11 0.09 0.11 0.13 0.16 0.18 0.25 0.40 0.52 0.55 0.54 0.52 0.52 0.51 0.47 0.50 0.55 0.64 0.67 0.60 0.59 0.66 0.66 0.60 0.50 0.38 0.28 0.32 0.42 0.54 0.65 0.61 0.49 0.35 0.28
0.14 0.13 0.13 0.14 0.16 0.26 0.24 0.22 0.28 0.43 0.53 0.57 0.58 0.56 0.48 0.43 0.40 0.38 0.41 0.50 0.57 0.51 0.42 0.42 0.54 0.54 0.52 0.51 0.48 0.42 0.38 0.40 0.55 0.70 0.75 0.69 0.57 0.43
0.12 0.15 0.23 0.29 0.32 0.39 0.43 0.48 0.51 0.50 0.47 0.53 0.54 0.47 0.36 0.32 0.34 0.35 0.40 0.46 0.54 0.52 0.38 0.32 0.37 0.42 0.47 0.43 0.43 0.45 0.42 0.51 0.59 0.68 0.80 0.84 0.71 0.51
0.09 0.20 0.36 0.42 0.48 0.52 0.54 0.57 0.59 0.52 0.47 0.47 0.46 0.43 0.37 0.35 0.32 0.29 0.34 0.38 0.46 0.48 0.41 0.33 0.32 0.32 0.30 0.30 0.37 0.40 0.40 0.49 0.62 0.69 0.79 0.93 0.89 0.66
0.14 0.29 0.36 0.39 0.44 0.44 0.44 0.48 0.52 0.51 0.44 0.40 0.40 0.38 0.34 0.34 0.34 0.32 0.32 0.37 0.44 0.41 0.36 0.31 0.27 0.26 0.26 0.26 0.35 0.41 0.43 0.56 0.67 0.66 0.63 0.78 0.98 0.87
0.26 0.35 0.36 0.38 0.41 0.38 0.37 0.42 0.46 0.42 0.36 0.33 0.32 0.30 0.28 0.27 0.29 0.30 0.30 0.30 0.31 0.30 0.27 0.22 0.21 0.24 0.28 0.37 0.44 0.58 0.59 0.59 0.59 0.58 0.58 0.68 0.92 0.92
0.33 0.33 0.33 0.34 0.38 0.38 0.33 0.32 0.32 0.28 0.24 0.24 0.25 0.22 0.21 0.23 0.25 0.27 0.23 0.20 0.23 0.25 0.24 0.20 0.18 0.22 0.30 0.37 0.58 0.74 0.70 0.52 0.46 0.56 0.65 0.71 0.83 0.83
0.27 0.27 0.28 0.28 0.30 0.32 0.28 0.24 0.21 0.18 0.17 0.17 0.17 0.18 0.18 0.19 0.19 0.18 0.15 0.10 0.14 0.19 0.22 0.22 0.20 0.19 0.21 0.22 0.39 0.62 0.68 0.73 0.64 0.61 0.65 0.64 0.55 0.45
0.23 0.24 0.22 0.19 0.22 0.21 0.17 0.16 0.16 0.14 0.12 0.12 0.12 0.12 0.12 0.13 0.13 0.11 0.10 0.10 0.11 0.11 0.15 0.17 0.16 0.15 0.17 0.22 0.36 0.52 0.55 0.51 0.51 0.56 0.58 0.44 0.29 0.30
0.21 0.20 0.18 0.16 0.15 0.14 0.12 0.10 0.09 0.09 0.09 0.11 0.10 0.08 0.07 0.07 0.06 0.04 0.04 0.04 0.04 0.04 0.06 0.10 0.10 0.10 0.11 0.13 0.19 0.26 0.26 0.22 0.16 0.18 0.34 0.45 0.40 0.44

GEFSNE_prec_meanprecacc_114.txt.gz
Total_Precipitation_Accumulation
0.89 0.97 1.05 1.08 1.07 1.10 1.14 1.16 1.19 1.25 1.18 1.04 0.99 0.95 0.86 0.82 0.92 0.66 0.53 0.60 0.52 0.46 0.42 0.39 0.36 0.34 0.34 0.34 0.34 0.35 0.37 0.37 0.38 0.42 0.47 0.56 0.65 0.74
0.68 0.76 0.87 0.96 1.00 1.04 1.08 1.08 1.01 0.99 1.04 0.95 0.87 0.84 0.81 0.76 0.80 0.56 0.51 0.57 0.45 0.38 0.35 0.33 0.30 0.27 0.26 0.26 0.29 0.30 0.30 0.30 0.30 0.31 0.34 0.38 0.46 0.55
0.68 0.74 0.79 0.84 0.88 0.89 0.90 0.92 0.97 0.99 1.04 1.02 0.91 0.82 0.77 0.71 0.65 0.54 0.46 0.42 0.38 0.36 0.31 0.28 0.25 0.23 0.22 0.23 0.23 0.23 0.22 0.22 0.23 0.24 0.26 0.29 0.31 0.36
0.55 0.58 0.60 0.62 0.67 0.72 0.76 0.76 0.80 0.84 0.89 0.93 0.87 0.75 0.68 0.61 0.54 0.50 0.40 0.33 0.30 0.31 0.29 0.25 0.23 0.21 0.19 0.17 0.15 0.14 0.13 0.13 0.14 0.16 0.20 0.24 0.27 0.29
0.42 0.40 0.41 0.43 0.47 0.48 0.51 0.54 0.56 0.57 0.61 0.66 0.66 0.59 0.54 0.48 0.47 0.43 0.37 0.37 0.27 0.26 0.23 0.20 0.17 0.14 0.12 0.10 0.09 0.08 0.07 0.06 0.06 0.07 0.09 0.13 0.16 0.19
0.29 0.27 0.27 0.29 0.31 0.34 0.36 0.38 0.41 0.46 0.50 0.54 0.53 0.49 0.44 0.39 0.43 0.43 0.37 0.34 0.27 0.19 0.19 0.16 0.14 0.11 0.09 0.07 0.06 0.06 0.05 0.04 0.04 0.05 0.05 0.05 0.06 0.07
0.20 0.18 0.19 0.24 0.28 0.29 0.29 0.33 0.38 0.44 0.46 0.47 0.43 0.40 0.37 0.40 0.42 0.39 0.34 0.29 0.25 0.21 0.24 0.24 0.25 0.25 0.24 0.17 0.10 0.07 0.04 0.03 0.03 0.03 0.03 0.04 0.04 0.04
0.19 0.19 0.19 0.21 0.23 0.23 0.26 0.33 0.42 0.44 0.44 0.45 0.42 0.41 0.39 0.40 0.40 0.38 0.37 0.37 0.37 0.28 0.32 0.30 0.28 0.30 0.30 0.27 0.18 0.10 0.06 0.05 0.04 0.03 0.02 0.02 0.03 0.04
0.18 0.18 0.18 0.17 0.19 0.20 0.23 0.27 0.31 0.33 0.36 0.42 0.47 0.45 0.45 0.45 0.46 0.44 0.45 0.47 0.45 0.37 0.44 0.42 0.30 0.29 0.22 0.18 0.15 0.11 0.09 0.07 0.05 0.04 0.03 0.03 0.03 0.03
0.16 0.17 0.19 0.20 0.20 0.20 0.20 0.21 0.27 0.33 0.32 0.32 0.40 0.41 0.37 0.38 0.42 0.45 0.47 0.50 0.50 0.47 0.50 0.51 0.31 0.28 0.22 0.27 0.23 0.15 0.11 0.10 0.08 0.06 0.05 0.03 0.03 0.03
0.14 0.15 0.17 0.21 0.22 0.20 0.20 0.26 0.31 0.36 0.27 0.25 0.30 0.34 0.35 0.36 0.35 0.40 0.55 0.68 0.63 0.48 0.48 0.53 0.41 0.34 0.29 0.31 0.27 0.20 0.15 0.13 0.09 0.07 0.07 0.07 0.07 0.07
0.13 0.16 0.16 0.17 0.17 0.15 0.16 0.25 0.35 0.37 0.33 0.37 0.45 0.48 0.48 0.53 0.48 0.50 0.64 0.71 0.68 0.63 0.53 0.54 0.51 0.47 0.44 0.32 0.31 0.30 0.28 0.23 0.15 0.13 0.10 0.10 0.13 0.16
0.15 0.22 0.23 0.14 0.12 0.13 0.16 0.20 0.28 0.26 0.34 0.49 0.56 0.55 0.55 0.59 0.57 0.52 0.58 0.65 0.72 0.78 0.61 0.59 0.59 0.58 0.61 0.45 0.28 0.27 0.31 0.36 0.37 0.37 0.31 0.23 0.19 0.19
0.20 0.23 0.22 0.14 0.11 0.14 0.17 0.21 0.23 0.29 0.43 0.55 0.58 0.56 0.53 0.53 0.52 0.47 0.50 0.55 0.64 0.67 0.60 0.59 0.66 0.66 0.60 0.50 0.38 0.28 0.32 0.42 0.54 0.65 0.61 0.49 0.35 0.28
0.15 0.14 0.14 0.16 0.18 0.28 0.26 0.24 0.30 0.45 0.54 0.58 0.59 0.56 0.48 0.43 0.40 0.38 0.41 0.51 0.57 0.51 0.42 0.42 0.54 0.54 0.52 0.51 0.48 0.42 0.38 0.40 0.55 0.70 0.75 0.69 0.57 0.43
0.13 0.16 0.24 0.30 0.33 0.40 0.44 0.49 0.51 0.51 0.48 0.54 0.55 0.47 0.36 0.32 0.34 0.35 0.40 0.46 0.55 0.52 0.38 0.32 0.37 0.42 0.47 0.43 0.43 0.45 0.42 0.51 0.59 0.68 0.80 0.84 0.71 0.51
0.10 0.21 0.37 0.43 0.48 0.52 0.54 0.57 0.59 0.53 0.47 0.47 0.47 0.44 0.37 0.35 0.32 0.29 0.34 0.38 0.46 0.48 0.41 0.33 0.32 0.32 0.30 0.30 0.37 0.40 0.40 0.49 0.62 0.69 0.79 0.93 0.89 0.66
0.15 0.31 0.37 0.40 0.44 0.45 0.44 0.48 0.52 0.51 0.44 0.40 0.40 0.38 0.35 0.34 0.34 0.32 0.32 0.37 0.44 0.41 0.36 0.31 0.27 0.26 0.26 0.26 0.35 0.41 0.43 0.56 0.67 0.66 0.63 0.78 0.98 0.87
0.28 0.37 0.37 0.39 0.42 0.39 0.37 0.42 0.46 0.42 0.36 0.33 0.32 0.30 0.28 0.27 0.29 0.30 0.30 0.30 0.31 0.30 0.27 0.22 0.21 0.24 0.28 0.37 0.44 0.58 0.59 0.59 0.59 0.58 0.58 0.68 0.92 0.92
0.34 0.34 0.33 0.35 0.38 0.38 0.33 0.32 0.32 0.28 0.24 0.24 0.25 0.22 0.21 0.23 0.25 0.27 0.23 0.20 0.23 0.25 0.24 0.20 0.18 0.22 0.30 0.37 0.58 0.74 0.70 0.52 0.46 0.56 0.65 0.71 0.83 0.83
0.27 0.27 0.28 0.28 0.30 0.32 0.28 0.24 0.21 0.18 0.17 0.17 0.17 0.18 0.18 0.19 0.19 0.18 0.15 0.10 0.14 0.19 0.22 0.22 0.20 0.19 0.21 0.22 0.39 0.62 0.68 0.73 0.64 0.61 0.65 0.64 0.55 0.45
0.23 0.24 0.22 0.19 0.22 0.21 0.17 0.16 0.16 0.14 0.12 0.12 0.12 0.12 0.12 0.13 0.13 0.11 0.10 0.10 0.11 0.11 0.15 0.17 0.16 0.15 0.17 0.22 0.36 0.52 0.55 0.51 0.51 0.56 0.58 0.44 0.29 0.30
0.21 0.20 0.18 0.16 0.15 0.14 0.12 0.10 0.09 0.09 0.09 0.11 0.10 0.08 0.07 0.07 0.06 0.04 0.04 0.04 0.04 0.04 0.06 0.10 0.10 0.10 0.11 0.13 0.19 0.26 0.26 0.22 0.16 0.18 0.34 0.45 0.40 0.44

GEFSNE_prec_meanprecacc_120.txt.gz
Total_Precipitation_Accumulation
0.91 1.00 1.09 1.13 1.14 1.18 1.22 1.24 1.27 1.32 1.23 1.09 1.06 1.05 0.99 0.97 1.11 0.85 0.74 0.88 0.83 0.75 0.68 0.61 0.54 0.49 0.47 0.46 0.45 0.45 0.45 0.44 0.44 0.47 0.51 0.59 0.67 0.75
0.70 0.78 0.89 0.99 1.05 1.11 1.16 1.15 1.09 1.07 1.11 1.02 0.95 0.96 0.94 0.90 0.98 0.72 0.69 0.77 0.65 0.58 0.52 0.48 0.44 0.39 0.37 0.36 0.38 0.38 0.37 0.36 0.36 0.36 0.38 0.40 0.47 0.56
0.71 0.76 0.81 0.87 0.92 0.94 0.95 0.97 1.02 1.05 1.12 1.12 1.01 0.94 0.88 0.84 0.80 0.68 0.60 0.56 0.53 0.52 0.46 0.41 0.36 0.32 0.29 0.28 0.28 0.28 0.28 0.27 0.27 0.27 0.29 0.31 0.32 0.36
0.59 0.62 0.64 0.65 0.71 0.77 0.81 0.82 0.86 0.91 0.98 1.04 0.98 0.85 0.78 0.70 0.64 0.60 0.50 0.44 0.42 0.44 0.41 0.36 0.32 0.28 0.25 0.22 0.20 0.18 0.17 0.17 0.18 0.19 0.21 0.24 0.27 0.30
0.47 0.47 0.47 0.48 0.51 0.53 0.56 0.62 0.65 0.67 0.71 0.76 0.78 0.70 0.65 0.58 0.55 0.51 0.45 0.45 0.36 0.35 0.31 0.27 0.24 0.21 0.18 0.15 0.14 0.13 0.12 0.10 0.08 0.09 0.11 0.14 0.17 0.19
0.31 0.31 0.33 0.35 0.37 0.39 0.40 0.42 0.46 0.52 0.56 0.61 0.62 0.58 0.53 0.47 0.50 0.49 0.44 0.41 0.34 0.25 0.25 0.21 0.18 0.14 0.13 0.12 0.12 0.10 0.09 0.08 0.07 0.07 0.06 0.06 0.06 0.07
0.21 0.20 0.21 0.26 0.31 0.31 0.32 0.36 0.42 0.48 0.50 0.52 0.50 0.46 0.43 0.46 0.47 0.44 0.40 0.35 0.30 0.25 0.28 0.27 0.27 0.28 0.28 0.22 0.15 0.10 0.08 0.06 0.05 0.04 0.04 0.04 0.04 0.04
0.19 0.20 0.20 0.22 0.24 0.24 0.28 0.36 0.46 0.48 0.47 0.49 0.47 0.46 0.43 0.44 0.45 0.42 0.42 0.42 0.42 0.32 0.34 0.32 0.30 0.34 0.33 0.30 0.20 0.12 0.08 0.07 0.05 0.04 0.03 0.03 0.03 0.04
0.19 0.19 0.18 0.18 0.20 0.21 0.24 0.29 0.33 0.36 0.41 0.48 0.53 0.51 0.50 0.51 0.53 0.50 0.50 0.52 0.50 0.40 0.46 0.44 0.32 0.31 0.24 0.19 0.16 0.11 0.09 0.08 0.06 0.04 0.03 0.03 0.03 0.03
0.18 0.19 0.20 0.21 0.21 0.21 0.21 0.23 0.28 0.34 0.35 0.36 0.46 0.48 0.45 0.46 0.50 0.52 0.53 0.55 0.55 0.50 0.54 0.55 0.35 0.29 0.23 0.28 0.24 0.15 0.11 0.10 0.08 0.06 0.05 0.03 0.03 0.03
0.16 0.16 0.19 0.22 0.23 0.21 0.21 0.28 0.34 0.38 0.31 0.30 0.37 0.42 0.43 0.44 0.43 0.47 0.62 0.74 0.70 0.53 0.52 0.56 0.44 0.35 0.29 0.31 0.28 0.20 0.15 0.13 0.09 0.07 0.07 0.07 0.07 0.07
0.15 0.17 0.18 0.18 0.19 0.17 0.19 0.28 0.38 0.40 0.36 0.41 0.51 0.54 0.54 0.60 0.55 0.56 0.70 0.77 0.74 0.68 0.56 0.56 0.52 0.48 0.45 0.33 0.31 0.30 0.28 0.23 0.15 0.13 0.10 0.10 0.13 0.16
0.17 0.24 0.24 0.16 0.14 0.16 0.19 0.24 0.31 0.30 0.38 0.53 0.61 0.60 0.60 0.64 0.61 0.55 0.62 0.70 0.76 0.81 0.62 0.60 0.60 0.59 0.62 0.46 0.29 0.27 0.32 0.36 0.37 0.37 0.31 0.23 0.19 0.19
0.22 0.25 0.24 0.16 0.13 0.17 0.20 0.25 0.26 0.32 0.48 0.59 0.63 0.61 0.57 0.57 0.55 0.50 0.52 0.58 0.66 0.69 0.61 0.60 0.68 0.67 0.61 0.51 0.38 0.28 0.32 0.42 0.55 0.65 0.62 0.49 0.35 0.28
0.17 0.16 0.16 0.17 0.19 0.30 0.30 0.28 0.34 0.49 0.58 0.61 0.63 0.61 0.52 0.46 0.42 0.40 0.43 0.52 0.59 0.51 0.42 0.42 0.55 0.55 0.53 0.51 0.48 0.42 0.38 0.41 0.55 0.70 0.75 0.69 0.58 0.43
0.14 0.17 0.25 0.31 0.35 0.41 0.46 0.52 0.54 0.54 0.50 0.57 0.57 0.50 0.38 0.34 0.35 0.36 0.42 0.48 0.56 0.52 0.39 0.32 0.37 0.43 0.48 0.43 0.43 0.45 0.42 0.51 0.59 0.68 0.80 0.84 0.71 0.51
0.11 0.23 0.38 0.45 0.50 0.54 0.56 0.59 0.61 0.54 0.49 0.48 0.48 0.45 0.38 0.36 0.33 0.30 0.35 0.39 0.47 0.49 0.41 0.33 0.32 0.32 0.30 0.30 0.38 0.41 0.40 0.49 0.62 0.69 0.79 0.93 0.89 0.66
0.17 0.33 0.39 0.42 0.46 0.46 0.45 0.49 0.53 0.52 0.45 0.42 0.42 0.39 0.36 0.35 0.35 0.32 0.32 0.37 0.44 0.41 0.36 0.31 0.27 0.26 0.26 0.27 0.35 0.41 0.43 0.56 0.67 0.66 0.64 0.78 0.98 0.87
0.30 0.39 0.39 0.40 0.43 0.39 0.38 0.42 0.46 0.43 0.36 0.34 0.34 0.31 0.29 0.28 0.30 0.31 0.30 0.30 0.31 0.30 0.27 0.22 0.21 0.24 0.29 0.37 0.44 0.58 0.59 0.59 0.59 0.58 0.58 0.68 0.92 0.92
0.35 0.35 0.34 0.35 0.38 0.38 0.33 0.33 0.32 0.28 0.24 0.25 0.26 0.24 0.22 0.24 0.26 0.27 0.23 0.21 0.24 0.26 0.24 0.20 0.18 0.22 0.30 0.37 0.58 0.74 0.70 0.52 0.46 0.56 0.65 0.71 0.83 0.83
0.28 0.28 0.29 0.29 0.30 0.32 0.28 0.24 0.21 0.18 0.17 0.17 0.18 0.19 0.19 0.19 0.20 0.19 0.15 0.10 0.15 0.19 0.22 0.22 0.20 0.19 0.21 0.22 0.40 0.62 0.68 0.73 0.64 0.61 0.65 0.64 0.55 0.45
0.23 0.25 0.22 0.20 0.22 0.21 0.17 0.16 0.16 0.14 0.12 0.12 0.12 0.12 0.12 0.13 0.13 0.11 0.10 0.10 0.11 0.11 0.15 0.17 0.16 0.15 0.17 0.22 0.36 0.52 0.55 0.51 0.51 0.56 0.58 0.44 0.29 0.30
0.22 0.21 0.18 0.16 0.15 0.14 0.12 0.10 0.09 0.09 0.09 0.11 0.10 0.08 0.07 0.07 0.06 0.04 0.04 0.04 0.04 0.04 0.06 0.10 0.10 0.10 0.11 0.13 0.19 0.26 0.26 0.22 0.16 0.18 0.34 0.45 0.40 0.44

GEFSNE_prec_meanprecacc_126.txt.gz
Total_Precipitation_Accumulation
0.94 1.04 1.15 1.20 1.21 1.25 1.30 1.34 1.37 1.40 1.31 1.16 1.12 1.10 1.05 1.03 1.19 0.92 0.80 0.98 0.95 0.91 0.87 0.81 0.73 0.66 0.62 0.60 0.59 0.58 0.58 0.56 0.55 0.58 0.63 0.72 0.80 0.86
0.72 0.80 0.92 1.04 1.12 1.17 1.24 1.25 1.20 1.18 1.20 1.08 1.00 1.00 0.99 0.94 1.04 0.77 0.74 0.86 0.75 0.70 0.66 0.62 0.57 0.52 0.49 0.49 0.50 0.51 0.49 0.47 0.46 0.46 0.47 0.50 0.56 0.63
0.73 0.78 0.84 0.90 0.96 1.00 1.02 1.04 1.11 1.14 1.21 1.21 1.10 1.02 0.95 0.90 0.86 0.74 0.66 0.63 0.62 0.62 0.56 0.51 0.47 0.43 0.40 0.37 0.35 0.35 0.35 0.34 0.34 0.34 0.35 0.37 0.39 0.43
0.62 0.65 0.67 0.68 0.74 0.81 0.86 0.87 0.92 0.98 1.06 1.14 1.08 0.95 0.87 0.79 0.71 0.66 0.56 0.50 0.49 0.51 0.47 0.43 0.39 0.35 0.32 0.29 0.26 0.23 0.22 0.22 0.24 0.26 0.29 0.32 0.34 0.36
0.51 0.51 0.52 0.53 0.56 0.58 0.62 0.66 0.70 0.74 0.80 0.84 0.86 0.78 0.73 0.65 0.61 0.57 0.50 0.50 0.40 0.39 0.35 0.31 0.28 0.26 0.23 0.21 0.20 0.19 0.17 0.14 0.13 0.14 0.17 0.20 0.23 0.24
0.34 0.34 0.38 0.42 0.44 0.44 0.44 0.45 0.49 0.57 0.63 0.69 0.68 0.64 0.59 0.52 0.55 0.54 0.48 0.44 0.38 0.28 0.28 0.23 0.20 0.17 0.15 0.15 0.15 0.13 0.12 0.11 0.11 0.11 0.10 0.10 0.09 0.09
0.23 0.22 0.24 0.30 0.35 0.36 0.36 0.39 0.45 0.51 0.54 0.57 0.54 0.50 0.47 0.50 0.51 0.47 0.43 0.38 0.33 0.27 0.30 0.29 0.29 0.30 0.30 0.23 0.17 0.13 0.10 0.08 0.07 0.06 0.05 0.06 0.06 0.05
0.22 0.23 0.23 0.25 0.26 0.26 0.30 0.39 0.49 0.51 0.52 0.53 0.50 0.50 0.47 0.47 0.47 0.44 0.44 0.45 0.46 0.34 0.36 0.34 0.31 0.35 0.34 0.31 0.22 0.13 0.10 0.08 0.06 0.04 0.04 0.03 0.03 0.04
0.23 0.22 0.20 0.21 0.23 0.23 0.26 0.30 0.35 0.39 0.45 0.52 0.57 0.55 0.55 0.55 0.55 0.52 0.53 0.56 0.54 0.43 0.49 0.47 0.34 0.33 0.25 0.20 0.18 0.12 0.10 0.08 0.06 0.04 0.03 0.03 0.03 0.03
0.22 0.24 0.23 0.24 0.24 0.24 0.24 0.25 0.30 0.36 0.38 0.40 0.52 0.53 0.48 0.49 0.54 0.56 0.59 0.60 0.60 0.54 0.56 0.58 0.37 0.31 0.24 0.29 0.25 0.16 0.12 0.10 0.08 0.06 0.05 0.03 0.03 0.03
0.19 0.19 0.22 0.24 0.24 0.23 0.25 0.32 0.35 0.40 0.33 0.34 0.41 0.48 0.49 0.49 0.48 0.53 0.68 0.79 0.75 0.57 0.54 0.59 0.46 0.36 0.30 0.33 0.28 0.20 0.15 0.13 0.10 0.07 0.07 0.07 0.07 0.07
0.18 0.18 0.19 0.19 0.19 0.18 0.25 0.33 0.42 0.43 0.39 0.43 0.54 0.59 0.59 0.65 0.61 0.62 0.77 0.83 0.78 0.73 0.58 0.58 0.54 0.49 0.46 0.34 0.31 0.30 0.29 0.23 0.15 0.13 0.10 0.10 0.13 0.16
0.21 0.25 0.25 0.17 0.15 0.17 0.22 0.28 0.34 0.33 0.42 0.57 0.64 0.63 0.63 0.68 0.65 0.60 0.67 0.75 0.80 0.85 0.64 0.61 0.61 0.60 0.63 0.48 0.30 0.28 0.32 0.37 0.37 0.37 0.31 0.23 0.19 0.19
0.25 0.26 0.24 0.16 0.14 0.18 0.21 0.26 0.28 0.35 0.51 0.63 0.67 0.65 0.60 0.60 0.58 0.53 0.56 0.61 0.69 0.71 0.62 0.61 0.69 0.69 0.63 0.54 0.40 0.29 0.32 0.43 0.55 0.65 0.62 0.49 0.35 0.29
0.19 0.17 0.17 0.18 0.20 0.31 0.31 0.30 0.36 0.52 0.60 0.63 0.66 0.65 0.56 0.49 0.45 0.43 0.46 0.55 0.61 0.53 0.43 0.43 0.56 0.56 0.55 0.53 0.50 0.43 0.38 0.41 0.55 0.71 0.76 0.70 0.58 0.44
0.17 0.19 0.26 0.32 0.36 0.43 0.48 0.54 0.57 0.57 0.53 0.60 0.61 0.53 0.42 0.37 0.38 0.39 0.44 0.51 0.58 0.54 0.39 0.33 0.38 0.44 0.49 0.44 0.44 0.46 0.43 0.51 0.59 0.68 0.80 0.84 0.71 0.51
0.16 0.26 0.42 0.48 0.53 0.56 0.59 0.63 0.64 0.58 0.52 0.51 0.51 0.48 0.41 0.38 0.35 0.32 0.37 0.41 0.48 0.50 0.42 0.33 0.32 0.32 0.30 0.30 0.38 0.41 0.40 0.49 0.62 0.69 0.79 0.93 0.89 0.66
0.22 0.38 0.44 0.46 0.51 0.50 0.49 0.53 0.57 0.55 0.48 0.44 0.44 0.42 0.38 0.37 0.37 0.33 0.33 0.38 0.44 0.42 0.37 0.31 0.27 0.26 0.27 0.27 0.35 0.41 0.43 0.56 0.67 0.66 0.64 0.78 0.98 0.87
0.35 0.43 0.42 0.43 0.46 0.43 0.42 0.46 0.49 0.45 0.38 0.36 0.35 0.32 0.29 0.28 0.30 0.32 0.30 0.31 0.31 0.30 0.27 0.23 0.21 0.25 0.30 0.38 0.44 0.58 0.59 0.59 0.59 0.58 0.58 0.68 0.92 0.92
0.40 0.38 0.37 0.38 0.41 0.40 0.36 0.35 0.34 0.29 0.25 0.26 0.27 0.24 0.23 0.24 0.26 0.27 0.24 0.21 0.24 0.26 0.24 0.20 0.18 0.22 0.30 0.38 0.58 0.74 0.70 0.52 0.46 0.56 0.65 0.71 0.83 0.83
0.30 0.31 0.31 0.31 0.32 0.34 0.30 0.26 0.23 0.19 0.17 0.17 0.18 0.19 0.19 0.19 0.20 0.19 0.15 0.10 0.15 0.19 0.22 0.23 0.20 0.19 0.21 0.22 0.40 0.62 0.68 0.73 0.64 0.61 0.65 0.64 0.55 0.45
0.24 0.26 0.24 0.21 0.23 0.22 0.18 0.17 0.16 0.14 0.12 0.12 0.12 0.12 0.12 0.13 0.13 0.12 0.10 0.10 0.11 0.11 0.15 0.17 0.16 0.15 0.17 0.22 0.36 0.52 0.55 0.51 0.51 0.56 0.58 0.44 0.29 0.31
0.22 0.21 0.18 0.17 0.16 0.14 0.12 0.10 0.09 0.09 0.09 0.11 0.10 0.08 0.07 0.07 0.06 0.04 0.04 0.04 0.04 0.04 0.06 0.10 0.10 0.10 0.11 0.13 0.19 0.26 0.26 0.22 0.16 0.18 0.34 0.45 0.40 0.44

GEFSNE_prec_meanprecacc_132.txt.gz
Total_Precipitation_Accumulation
0.95 1.06 1.16 1.22 1.24 1.28 1.34 1.38 1.41 1.43 1.32 1.18 1.15 1.13 1.09 1.07 1.24 0.97 0.85 1.03 1.00 0.97 0.93 0.86 0.78 0.71 0.68 0.67 0.67 0.68 0.70 0.70 0.70 0.72 0.76 0.82 0.88 0.94
0.72 0.80 0.93 1.05 1.13 1.20 1.26 1.28 1.24 1.21 1.22 1.10 1.03 1.04 1.03 0.98 1.08 0.82 0.79 0.92 0.82 0.77 0.72 0.68 0.63 0.57 0.54 0.55 0.58 0.59 0.58 0.57 0.57 0.58 0.59 0.60 0.65 0.73
0.74 0.79 0.84 0.90 0.97 1.01 1.04 1.08 1.14 1.17 1.24 1.23 1.12 1.06 0.99 0.94 0.90 0.78 0.71 0.68 0.68 0.68 0.61 0.56 0.51 0.48 0.46 0.44 0.42 0.42 0.42 0.43 0.45 0.45 0.46 0.47 0.47 0.50
0.63 0.66 0.67 0.69 0.75 0.83 0.88 0.90 0.96 1.02 1.11 1.19 1.12 0.99 0.91 0.83 0.76 0.71 0.62 0.55 0.53 0.56 0.51 0.46 0.42 0.39 0.37 0.35 0.32 0.30 0.30 0.31 0.34 0.37 0.39 0.42 0.43 0.44
0.52 0.52 0.54 0.56 0.58 0.60 0.64 0.68 0.74 0.78 0.85 0.91 0.93 0.85 0.79 0.69 0.65 0.60 0.53 0.53 0.44 0.44 0.39 0.34 0.31 0.27 0.25 0.24 0.24 0.25 0.24 0.23 0.22 0.23 0.25 0.29 0.31 0.31
0.35 0.36 0.42 0.49 0.49 0.49 0.48 0.48 0.52 0.61 0.68 0.74 0.75 0.72 0.66 0.58 0.58 0.57 0.51 0.47 0.41 0.31 0.32 0.26 0.23 0.18 0.17 0.17 0.17 0.16 0.15 0.16 0.16 0.17 0.16 0.15 0.14 0.13
0.24 0.23 0.26 0.34 0.42 0.42 0.41 0.43 0.48 0.55 0.58 0.61 0.59 0.56 0.53 0.55 0.55 0.50 0.44 0.40 0.35 0.29 0.33 0.31 0.30 0.31 0.31 0.24 0.18 0.14 0.12 0.10 0.09 0.08 0.07 0.07 0.07 0.06
0.22 0.23 0.23 0.26 0.29 0.31 0.36 0.44 0.53 0.54 0.56 0.57 0.54 0.54 0.51 0.50 0.50 0.47 0.46 0.47 0.47 0.36 0.38 0.36 0.32 0.36 0.35 0.32 0.23 0.14 0.10 0.08 0.07 0.05 0.05 0.04 0.04 0.05
0.23 0.24 0.21 0.22 0.25 0.25 0.29 0.34 0.40 0.43 0.49 0.58 0.62 0.59 0.58 0.57 0.57 0.54 0.55 0.58 0.56 0.45 0.51 0.49 0.36 0.34 0.26 0.21 0.18 0.13 0.11 0.09 0.07 0.05 0.04 0.03 0.03 0.03
0.23 0.24 0.24 0.25 0.26 0.27 0.27 0.28 0.33 0.39 0.41 0.45 0.56 0.56 0.52 0.52 0.56 0.59 0.61 0.63 0.62 0.57 0.59 0.60 0.38 0.32 0.25 0.30 0.25 0.16 0.12 0.11 0.09 0.07 0.05 0.03 0.03 0.03
0.20 0.20 0.22 0.25 0.26 0.26 0.28 0.35 0.38 0.42 0.36 0.39 0.47 0.52 0.53 0.53 0.51 0.56 0.71 0.82 0.77 0.60 0.56 0.60 0.47 0.37 0.31 0.33 0.29 0.21 0.16 0.13 0.10 0.07 0.07 0.07 0.07 0.07
0.20 0.19 0.19 0.20 0.21 0.21 0.27 0.36 0.44 0.45 0.41 0.46 0.58 0.64 0.63 0.69 0.64 0.65 0.81 0.86 0.80 0.74 0.60 0.59 0.54 0.50 0.47 0.34 0.32 0.30 0.29 0.23 0.16 0.13 0.10 0.10 0.13 0.16
0.23 0.27 0.26 0.19 0.16 0.19 0.24 0.30 0.37 0.36 0.44 0.59 0.67 0.68 0.68 0.72 0.68 0.62 0.70 0.77 0.83 0.87 0.66 0.61 0.62 0.61 0.64 0.48 0.30 0.28 0.32 0.37 0.37 0.37 0.31 0.23 0.19 0.19
0.28 0.29 0.27 0.19 0.16 0.20 0.23 0.28 0.31 0.38 0.53 0.66 0.70 0.69 0.64 0.63 0.61 0.55 0.57 0.63 0.71 0.73 0.63 0.61 0.69 0.69 0.63 0.54 0.40 0.29 0.32 0.43 0.55 0.65 0.62 0.49 0.35 0.29
0.21 0.20 0.19 0.20 0.22 0.32 0.32 0.32 0.39 0.54 0.63 0.66 0.69 0.69 0.59 0.52 0.48 0.45 0.47 0.56 0.62 0.54 0.44 0.43 0.56 0.56 0.55 0.53 0.50 0.43 0.38 0.41 0.55 0.71 0.76 0.70 0.58 0.44
0.20 0.21 0.28 0.33 0.37 0.44 0.50 0.56 0.59 0.59 0.55 0.62 0.63 0.57 0.46 0.40 0.41 0.41 0.46 0.52 0.58 0.54 0.40 0.33 0.38 0.44 0.49 0.44 0.44 0.46 0.43 0.51 0.59 0.68 0.80 0.84 0.71 0.51
0.18 0.28 0.43 0.49 0.54 0.58 0.61 0.64 0.66 0.60 0.54 0.53 0.53 0.50 0.44 0.41 0.37 0.32 0.37 0.41 0.48 0.50 0.42 0.33 0.32 0.32 0.30 0.30 0.38 0.41 0.40 0.49 0.62 0.69 0.79 0.93 0.89 0.66
0.24 0.40 0.46 0.49 0.52 0.51 0.51 0.55 0.59 0.57 0.49 0.45 0.45 0.43 0.40 0.38 0.37 0.33 0.33 0.38 0.45 0.42 0.37 0.31 0.27 0.26 0.27 0.27 0.35 0.41 0.43 0.56 0.67 0.66 0.64 0.78 0.98 0.87
0.36 0.45 0.46 0.46 0.49 0.46 0.45 0.48 0.51 0.47 0.39 0.37 0.36 0.32 0.29 0.29 0.31 0.32 0.30 0.31 0.31 0.30 0.27 0.23 0.21 0.25 0.30 0.38 0.44 0.58 0.59 0.59 0.59 0.58 0.58 0.68 0.92 0.92
0.42 0.41 0.40 0.40 0.43 0.43 0.40 0.38 0.36 0.31 0.26 0.27 0.27 0.25 0.23 0.24 0.27 0.28 0.24 0.21 0.24 0.26 0.24 0.20 0.18 0.22 0.30 0.38 0.58 0.74 0.70 0.52 0.46 0.56 0.65 0.71 0.83 0.83
0.32 0.33 0.34 0.33 0.34 0.37 0.34 0.29 0.24 0.20 0.18 0.17 0.19 0.19 0.20 0.19 0.20 0.19 0.15 0.11 0.15 0.19 0.22 0.23 0.20 0.19 0.21 0.22 0.40 0.62 0.68 0.73 0.64 0.61 0.65 0.64 0.55 0.45
0.24 0.27 0.25 0.23 0.25 0.24 0.21 0.19 0.18 0.16 0.13 0.12 0.12 0.12 0.12 0.14 0.13 0.12 0.10 0.10 0.11 0.11 0.15 0.17 0.16 0.15 0.17 0.22 0.36 0.52 0.55 0.51 0.51 0.56 0.58 0.44 0.29 0.31
0.23 0.22 0.19 0.17 0.17 0.16 0.14 0.11 0.10 0.10 0.10 0.11 0.10 0.08 0.07 0.07 0.06 0.04 0.04 0.04 0.04 0.04 0.06 0.10 0.10 0.10 0.11 0.13 0.19 0.26 0.26 0.22 0.16 0.18 0.34 0.45 0.40 0.44

GEFSNE_prec_meanprecacc_138.txt.gz
Total_Precipitation_Accumulation
0.97 1.07 1.18 1.24 1.26 1.30 1.36 1.41 1.44 1.46 1.35 1.19 1.16 1.14 1.11 1.10 1.28 1.01 0.89 1.07 1.04 1.02 0.99 0.92 0.83 0.78 0.75 0.74 0.74 0.75 0.77 0.77 0.78 0.81 0.87 0.95 1.03 1.11
0.74 0.82 0.94 1.06 1.14 1.21 1.28 1.30 1.26 1.24 1.26 1.12 1.04 1.05 1.05 1.00 1.11 0.84 0.82 0.96 0.88 0.84 0.81 0.79 0.75 0.69 0.64 0.63 0.64 0.65 0.63 0.62 0.62 0.63 0.66 0.70 0.78 0.88
0.76 0.80 0.86 0.92 0.98 1.01 1.05 1.09 1.16 1.19 1.27 1.26 1.14 1.08 1.03 0.97 0.93 0.80 0.73 0.71 0.73 0.76 0.72 0.69 0.64 0.59 0.55 0.51 0.48 0.47 0.46 0.47 0.49 0.51 0.55 0.58 0.60 0.64
0.66 0.68 0.68 0.69 0.76 0.84 0.88 0.90 0.97 1.03 1.12 1.21 1.15 1.02 0.95 0.87 0.79 0.74 0.65 0.58 0.58 0.63 0.58 0.54 0.50 0.46 0.43 0.40 0.36 0.35 0.34 0.34 0.37 0.41 0.46 0.51 0.55 0.58
0.53 0.53 0.55 0.57 0.58 0.61 0.64 0.69 0.74 0.79 0.87 0.93 0.95 0.89 0.84 0.75 0.70 0.64 0.57 0.57 0.48 0.49 0.45 0.41 0.36 0.32 0.28 0.27 0.27 0.28 0.28 0.26 0.25 0.26 0.30 0.36 0.40 0.41
0.35 0.37 0.42 0.49 0.49 0.49 0.49 0.49 0.53 0.62 0.70 0.76 0.78 0.77 0.75 0.68 0.67 0.63 0.56 0.51 0.44 0.35 0.36 0.31 0.27 0.22 0.21 0.20 0.20 0.20 0.19 0.20 0.21 0.20 0.19 0.19 0.19 0.19
0.24 0.24 0.27 0.35 0.43 0.43 0.42 0.44 0.50 0.56 0.60 0.63 0.62 0.59 0.59 0.64 0.65 0.57 0.50 0.44 0.39 0.32 0.35 0.34 0.33 0.35 0.35 0.28 0.21 0.17 0.14 0.13 0.12 0.11 0.10 0.10 0.10 0.09
0.22 0.23 0.24 0.27 0.31 0.33 0.38 0.47 0.56 0.57 0.58 0.59 0.56 0.56 0.54 0.55 0.56 0.54 0.52 0.51 0.50 0.38 0.39 0.37 0.34 0.39 0.38 0.35 0.26 0.16 0.12 0.09 0.08 0.06 0.06 0.06 0.06 0.06
0.24 0.24 0.22 0.23 0.26 0.27 0.32 0.39 0.44 0.47 0.53 0.61 0.64 0.61 0.61 0.61 0.62 0.59 0.60 0.61 0.58 0.47 0.52 0.50 0.37 0.36 0.28 0.23 0.21 0.15 0.12 0.09 0.07 0.05 0.04 0.04 0.04 0.04
0.24 0.25 0.25 0.26 0.27 0.29 0.29 0.31 0.37 0.43 0.45 0.48 0.61 0.61 0.57 0.58 0.62 0.63 0.65 0.65 0.64 0.59 0.60 0.61 0.39 0.33 0.25 0.31 0.27 0.17 0.13 0.12 0.09 0.07 0.05 0.04 0.03 0.03
0.21 0.21 0.23 0.25 0.27 0.28 0.30 0.37 0.41 0.45 0.39 0.44 0.54 0.61 0.63 0.62 0.58 0.60 0.74 0.84 0.79 0.61 0.58 0.61 0.48 0.38 0.32 0.33 0.30 0.21 0.17 0.14 0.10 0.08 0.07 0.07 0.07 0.07
0.21 0.21 0.21 0.21 0.22 0.22 0.29 0.38 0.47 0.47 0.44 0.49 0.63 0.71 0.70 0.74 0.69 0.70 0.85 0.89 0.82 0.76 0.61 0.59 0.55 0.51 0.48 0.35 0.32 0.30 0.29 0.24 0.16 0.13 0.10 0.10 0.13 0.16
0.25 0.28 0.27 0.21 0.18 0.20 0.27 0.33 0.40 0.39 0.48 0.63 0.70 0.72 0.72 0.75 0.71 0.67 0.75 0.80 0.84 0.88 0.67 0.62 0.63 0.61 0.64 0.49 0.30 0.28 0.33 0.37 0.37 0.37 0.31 0.23 0.19 0.19
0.30 0.30 0.28 0.21 0.19 0.22 0.26 0.32 0.34 0.41 0.56 0.69 0.74 0.73 0.68 0.66 0.64 0.59 0.61 0.65 0.72 0.74 0.64 0.62 0.70 0.70 0.64 0.54 0.40 0.29 0.32 0.43 0.55 0.65 0.62 0.49 0.35 0.29
0.22 0.21 0.20 0.22 0.24 0.35 0.35 0.34 0.41 0.57 0.65 0.68 0.72 0.72 0.63 0.55 0.51 0.48 0.49 0.58 0.64 0.57 0.46 0.44 0.57 0.56 0.55 0.53 0.50 0.43 0.38 0.41 0.55 0.71 0.76 0.70 0.58 0.44
0.21 0.23 0.29 0.34 0.38 0.45 0.51 0.58 0.61 0.61 0.58 0.64 0.64 0.59 0.48 0.44 0.45 0.44 0.48 0.54 0.61 0.57 0.41 0.34 0.38 0.44 0.49 0.44 0.44 0.46 0.43 0.51 0.59 0.68 0.80 0.84 0.71 0.51
0.18 0.30 0.46 0.50 0.55 0.59 0.62 0.65 0.68 0.62 0.56 0.55 0.55 0.52 0.46 0.43 0.40 0.35 0.39 0.42 0.49 0.51 0.42 0.34 0.33 0.32 0.30 0.30 0.38 0.41 0.40 0.49 0.62 0.69 0.79 0.93 0.89 0.66
0.25 0.41 0.49 0.51 0.55 0.54 0.53 0.57 0.61 0.59 0.51 0.47 0.48 0.46 0.43 0.39 0.38 0.34 0.33 0.39 0.45 0.42 0.37 0.31 0.27 0.26 0.27 0.27 0.35 0.41 0.43 0.56 0.67 0.66 0.64 0.78 0.98 0.87
0.38 0.47 0.47 0.48 0.51 0.47 0.47 0.50 0.52 0.49 0.42 0.39 0.38 0.35 0.32 0.30 0.31 0.32 0.31 0.31 0.32 0.30 0.28 0.23 0.21 0.25 0.30 0.38 0.44 0.58 0.59 0.59 0.59 0.58 0.58 0.68 0.92 0.92
0.43 0.43 0.42 0.42 0.44 0.44 0.41 0.40 0.37 0.32 0.28 0.29 0.30 0.27 0.25 0.25 0.27 0.28 0.24 0.21 0.24 0.26 0.24 0.20 0.18 0.22 0.30 0.38 0.58 0.74 0.70 0.52 0.46 0.56 0.65 0.71 0.83 0.83
0.32 0.34 0.35 0.34 0.35 0.38 0.36 0.30 0.26 0.22 0.19 0.19 0.20 0.21 0.20 0.20 0.20 0.19 0.15 0.11 0.15 0.19 0.22 0.23 0.20 0.19 0.21 0.22 0.40 0.62 0.68 0.73 0.64 0.61 0.65 0.64 0.55 0.45
0.25 0.27 0.26 0.24 0.27 0.26 0.22 0.21 0.19 0.17 0.14 0.13 0.13 0.13 0.13 0.14 0.14 0.12 0.10 0.10 0.11 0.11 0.15 0.17 0.16 0.15 0.17 0.22 0.36 0.52 0.55 0.51 0.51 0.56 0.58 0.44 0.29 0.31
0.23 0.22 0.19 0.18 0.17 0.16 0.15 0.14 0.13 0.11 0.11 0.12 0.12 0.10 0.08 0.08 0.06 0.04 0.04 0.04 0.04 0.04 0.06 0.10 0.10 0.10 0.11 0.13 0.19 0.26 0.26 0.22 0.16 0.18 0.34 0.45 0.40 0.44